| time (UTC) | temp F | wind direction | speed MPH | gust MPH | rain 1hr in | rain 24hr in | rain mn in | humidity % | barometer mb |
| 20260506030200 | 58 | 134 | 0.0 | 1.0 | 0.02 | 0.47 | 0.47 | 91 | 1006.6 |
| 20260506030100 | 58 | 123 | 0.0 | 1.0 | 0.02 | 0.47 | 0.47 | 91 | 1006.6 |
| 20260506025806 | 58 | 125 | 0.0 | 1.0 | 0.02 | 0.47 | 0.47 | 91 | 1006.7 |
| 20260506025701 | 58 | 125 | 0.0 | 1.0 | 0.02 | 0.47 | 0.47 | 91 | 1006.7 |
| 20260506025401 | 58 | 234 | 0.0 | 1.0 | 0.02 | 0.47 | 0.47 | 91 | 1006.7 |
| 20260506025301 | 58 | 234 | 0.0 | 1.0 | 0.03 | 0.47 | 0.47 | 91 | 1006.8 |
| 20260506025202 | 58 | 234 | 0.0 | 1.0 | 0.03 | 0.47 | 0.47 | 91 | 1006.9 |
| 20260506025103 | 58 | 234 | 0.0 | 0.0 | 0.03 | 0.47 | 0.47 | 91 | 1006.9 |
| 20260506025002 | 58 | 234 | 0.0 | 0.0 | 0.03 | 0.47 | 0.47 | 91 | 1007.1 |
| 20260506024902 | 58 | 234 | 0.0 | 0.0 | 0.03 | 0.47 | 0.47 | 91 | 1007.1 |
| 20260506024801 | 58 | 234 | 0.0 | 0.0 | 0.03 | 0.47 | 0.47 | 90 | 1007.0 |
| 20260506024701 | 58 | 234 | 0.0 | 0.0 | 0.03 | 0.47 | 0.47 | 90 | 1006.9 |
| 20260506024601 | 58 | 234 | 0.0 | 0.0 | 0.04 | 0.47 | 0.47 | 90 | 1006.9 |
| 20260506024502 | 58 | 234 | 0.0 | 0.0 | 0.04 | 0.47 | 0.47 | 90 | 1006.9 |
| 20260506024401 | 58 | 234 | 0.0 | 0.0 | 0.04 | 0.47 | 0.47 | 90 | 1006.8 |
| 20260506024201 | 58 | 234 | 0.0 | 0.0 | 0.04 | 0.47 | 0.47 | 90 | 1006.7 |
| 20260506024101 | 58 | 234 | 0.0 | 0.0 | 0.04 | 0.47 | 0.47 | 90 | 1006.6 |
| 20260506024003 | 58 | 234 | 0.0 | 0.0 | 0.04 | 0.47 | 0.47 | 90 | 1006.6 |
| 20260506023902 | 58 | 234 | 0.0 | 1.0 | 0.04 | 0.47 | 0.47 | 90 | 1006.6 |
| 20260506023803 | 58 | 234 | 0.0 | 1.0 | 0.05 | 0.47 | 0.47 | 90 | 1006.6 |
| 20260506023700 | 58 | 234 | 0.0 | 1.0 | 0.05 | 0.47 | 0.47 | 90 | 1006.6 |
| 20260506023503 | 58 | 234 | 0.0 | 1.0 | 0.05 | 0.47 | 0.47 | 90 | 1006.7 |
| 20260506023401 | 59 | 234 | 0.0 | 1.0 | 0.05 | 0.47 | 0.47 | 90 | 1006.9 |
| 20260506023301 | 59 | 234 | 0.0 | 1.0 | 0.05 | 0.47 | 0.47 | 90 | 1006.9 |
| 20260506023203 | 59 | 236 | 0.0 | 1.0 | 0.04 | 0.46 | 0.46 | 90 | 1006.9 |
| 20260506023104 | 59 | 238 | 0.0 | 1.0 | 0.04 | 0.46 | 0.46 | 90 | 1007.1 |
| 20260506023001 | 59 | 242 | 0.0 | 1.0 | 0.04 | 0.46 | 0.46 | 90 | 1007.2 |
| 20260506022902 | 59 | 160 | 0.0 | 1.0 | 0.04 | 0.46 | 0.46 | 90 | 1007.2 |
| 20260506022802 | 59 | 160 | 0.0 | 3.0 | 0.04 | 0.46 | 0.46 | 90 | 1007.2 |
| 20260506022702 | 59 | 169 | 0.0 | 3.0 | 0.04 | 0.46 | 0.46 | 90 | 1007.2 |
| 20260506022601 | 59 | 184 | 0.0 | 3.0 | 0.04 | 0.46 | 0.46 | 90 | 1007.2 |
| 20260506022501 | 59 | 184 | 0.0 | 3.0 | 0.04 | 0.46 | 0.46 | 90 | 1007.2 |
| 20260506022402 | 59 | 202 | 0.0 | 3.0 | 0.04 | 0.46 | 0.46 | 90 | 1007.3 |
| 20260506022305 | 59 | 202 | 0.0 | 3.0 | 0.05 | 0.46 | 0.46 | 90 | 1007.3 |
| 20260506022204 | 59 | 202 | 0.0 | 3.0 | 0.05 | 0.46 | 0.46 | 90 | 1007.2 |
| 20260506022101 | 59 | 254 | 0.0 | 3.0 | 0.05 | 0.46 | 0.46 | 90 | 1007.2 |
| 20260506022002 | 59 | 194 | 3.0 | 3.0 | 0.05 | 0.46 | 0.46 | 90 | 1007.2 |
| 20260506021902 | 59 | 229 | 0.0 | 0.0 | 0.05 | 0.46 | 0.46 | 90 | 1007.2 |
| 20260506021802 | 59 | 229 | 0.0 | 0.0 | 0.05 | 0.46 | 0.46 | 90 | 1007.2 |
| 20260506021701 | 59 | 229 | 0.0 | 0.0 | 0.05 | 0.46 | 0.46 | 90 | 1007.2 |
| 20260506021603 | 59 | 229 | 0.0 | 0.0 | 0.05 | 0.46 | 0.46 | 90 | 1007.2 |
| 20260506021501 | 59 | 217 | 0.0 | 0.0 | 0.05 | 0.46 | 0.46 | 90 | 1007.2 |
| 20260506021401 | 59 | 213 | 0.0 | 0.0 | 0.05 | 0.46 | 0.46 | 90 | 1007.2 |
| 20260506021302 | 59 | 215 | 0.0 | 0.0 | 0.05 | 0.46 | 0.46 | 90 | 1007.2 |
| 20260506021202 | 59 | 186 | 0.0 | 0.0 | 0.05 | 0.46 | 0.46 | 90 | 1007.2 |
| 20260506021002 | 59 | 189 | 0.0 | 0.0 | 0.06 | 0.46 | 0.46 | 90 | 1007.1 |
| 20260506020902 | 59 | 189 | 0.0 | 0.0 | 0.06 | 0.46 | 0.46 | 90 | 1007.1 |
| 20260506020702 | 59 | 189 | 0.0 | 0.0 | 0.06 | 0.45 | 0.45 | 90 | 1007.2 |
| 20260506020602 | 59 | 189 | 0.0 | 0.0 | 0.06 | 0.45 | 0.45 | 90 | 1007.2 |
| 20260506020501 | 59 | 189 | 0.0 | 0.0 | 0.07 | 0.45 | 0.45 | 90 | 1007.2 |
| 20260506020301 | 59 | 165 | 0.0 | 0.0 | 0.08 | 0.45 | 0.45 | 90 | 1007.2 |
| 20260506020201 | 59 | 165 | 0.0 | 0.0 | 0.08 | 0.45 | 0.45 | 90 | 1007.1 |
| 20260506015800 | 59 | 187 | 0.0 | 0.0 | 0.09 | 0.45 | 0.45 | 90 | 1007.0 |
| 20260506015659 | 59 | 187 | 0.0 | 0.0 | 0.10 | 0.45 | 0.45 | 90 | 1006.9 |
| 20260506015600 | 59 | 187 | 0.0 | 0.0 | 0.10 | 0.45 | 0.45 | 90 | 1007.0 |
| 20260506015501 | 59 | 187 | 0.0 | 0.0 | 0.10 | 0.45 | 0.45 | 90 | 1007.0 |
| 20260506015402 | 59 | 187 | 0.0 | 0.0 | 0.11 | 0.45 | 0.45 | 90 | 1007.1 |
| 20260506015301 | 59 | 196 | 0.0 | 0.0 | 0.11 | 0.44 | 0.44 | 90 | 1007.1 |
| 20260506015200 | 59 | 196 | 0.0 | 0.0 | 0.11 | 0.44 | 0.44 | 90 | 1007.2 |
| 20260506015101 | 59 | 196 | 0.0 | 1.0 | 0.12 | 0.44 | 0.44 | 90 | 1007.2 |
| 20260506015000 | 59 | 194 | 0.0 | 1.0 | 0.12 | 0.44 | 0.44 | 90 | 1007.3 |
| 20260506014900 | 59 | 204 | 0.0 | 1.0 | 0.12 | 0.44 | 0.44 | 90 | 1007.3 |
| 20260506014800 | 59 | 204 | 0.0 | 1.0 | 0.12 | 0.44 | 0.44 | 89 | 1007.2 |
| 20260506014600 | 59 | 204 | 0.0 | 1.0 | 0.11 | 0.43 | 0.43 | 89 | 1007.3 |
| 20260506014500 | 59 | 259 | 0.0 | 1.0 | 0.11 | 0.43 | 0.43 | 89 | 1007.3 |
| 20260506014400 | 59 | 178 | 0.0 | 1.0 | 0.11 | 0.43 | 0.43 | 89 | 1007.3 |
| 20260506014301 | 59 | 276 | 0.0 | 1.0 | 0.11 | 0.43 | 0.43 | 89 | 1007.3 |
| 20260506014000 | 59 | 248 | 0.0 | 0.0 | 0.11 | 0.43 | 0.43 | 89 | 1007.2 |
| 20260506013900 | 59 | 248 | 0.0 | 0.0 | 0.10 | 0.42 | 0.42 | 89 | 1007.2 |
| 20260506013803 | 59 | 248 | 0.0 | 0.0 | 0.10 | 0.42 | 0.42 | 89 | 1007.1 |
| 20260506013700 | 59 | 284 | 0.0 | 0.0 | 0.10 | 0.42 | 0.42 | 89 | 1007.2 |
| 20260506013603 | 59 | 194 | 0.0 | 0.0 | 0.10 | 0.42 | 0.42 | 89 | 1007.2 |
| 20260506013500 | 59 | 203 | 0.0 | 0.0 | 0.10 | 0.42 | 0.42 | 89 | 1007.1 |
| 20260506013401 | 59 | 203 | 0.0 | 0.0 | 0.10 | 0.42 | 0.42 | 89 | 1007.2 |
| 20260506013301 | 59 | 203 | 0.0 | 0.0 | 0.10 | 0.42 | 0.42 | 89 | 1007.1 |
| 20260506013202 | 59 | 203 | 0.0 | 0.0 | 0.10 | 0.42 | 0.42 | 89 | 1007.1 |
| 20260506013102 | 59 | 203 | 0.0 | 0.0 | 0.10 | 0.42 | 0.42 | 89 | 1007.1 |
| 20260506013001 | 59 | 203 | 0.0 | 0.0 | 0.10 | 0.42 | 0.42 | 89 | 1007.1 |
| 20260506012902 | 59 | 203 | 0.0 | 0.0 | 0.10 | 0.42 | 0.42 | 89 | 1007.1 |
| 20260506012801 | 59 | 203 | 0.0 | 0.0 | 0.10 | 0.42 | 0.42 | 89 | 1007.0 |
| 20260506012603 | 59 | 246 | 0.0 | 0.0 | 0.10 | 0.42 | 0.42 | 89 | 1007.1 |
| 20260506012403 | 59 | 246 | 0.0 | 0.0 | 0.09 | 0.41 | 0.41 | 89 | 1007.1 |
| 20260506012307 | 59 | 246 | 0.0 | 0.0 | 0.09 | 0.41 | 0.41 | 89 | 1007.1 |
| 20260506012102 | 59 | 246 | 0.0 | 0.0 | 0.09 | 0.41 | 0.41 | 89 | 1007.0 |
| 20260506012002 | 59 | 246 | 0.0 | 0.0 | 0.09 | 0.41 | 0.41 | 89 | 1007.1 |
| 20260506011902 | 59 | 246 | 0.0 | 0.0 | 0.09 | 0.41 | 0.41 | 89 | 1007.1 |
| 20260506011803 | 59 | 225 | 0.0 | 0.0 | 0.09 | 0.41 | 0.41 | 89 | 1007.1 |
| 20260506011702 | 59 | 225 | 0.0 | 0.0 | 0.09 | 0.41 | 0.41 | 89 | 1007.0 |
| 20260506011602 | 59 | 215 | 0.0 | 0.0 | 0.09 | 0.41 | 0.41 | 89 | 1007.0 |
| 20260506011403 | 59 | 216 | 0.0 | 0.0 | 0.09 | 0.41 | 0.41 | 89 | 1007.0 |
| 20260506011301 | 59 | 226 | 0.0 | 0.0 | 0.09 | 0.41 | 0.41 | 89 | 1007.0 |
| 20260506011201 | 59 | 265 | 0.0 | 0.0 | 0.08 | 0.40 | 0.40 | 89 | 1007.0 |
| 20260506011102 | 59 | 265 | 0.0 | 0.0 | 0.08 | 0.40 | 0.40 | 88 | 1007.0 |
| 20260506010902 | 60 | 265 | 0.0 | 0.0 | 0.08 | 0.40 | 0.40 | 88 | 1007.0 |
| 20260506010801 | 59 | 265 | 0.0 | 0.0 | 0.07 | 0.39 | 0.39 | 88 | 1006.9 |
| 20260506010703 | 59 | 265 | 0.0 | 0.0 | 0.07 | 0.39 | 0.39 | 88 | 1006.8 |
| 20260506010602 | 59 | 265 | 0.0 | 0.0 | 0.07 | 0.39 | 0.39 | 88 | 1006.8 |
| 20260506010503 | 59 | 265 | 0.0 | 0.0 | 0.06 | 0.38 | 0.38 | 88 | 1006.8 |
| 20260506010403 | 60 | 265 | 0.0 | 1.0 | 0.07 | 0.38 | 0.38 | 88 | 1006.9 |
| 20260506010301 | 59 | 263 | 0.0 | 1.0 | 0.06 | 0.37 | 0.37 | 88 | 1006.8 |
| 20260506010202 | 60 | 202 | 0.0 | 1.0 | 0.06 | 0.37 | 0.37 | 88 | 1006.9 |
| 20260506005801 | 60 | 186 | 0.0 | 1.0 | 0.05 | 0.36 | 0.36 | 88 | 1007.0 |
| 20260506005701 | 60 | 185 | 0.0 | 1.0 | 0.04 | 0.35 | 0.35 | 88 | 1007.0 |
| 20260506005500 | 60 | 321 | 0.0 | 1.0 | 0.04 | 0.35 | 0.35 | 88 | 1007.1 |
| 20260506005401 | 60 | 261 | 0.0 | 2.0 | 0.03 | 0.34 | 0.34 | 88 | 1007.1 |
| 20260506005301 | 60 | 274 | 0.0 | 2.0 | 0.02 | 0.33 | 0.33 | 88 | 1007.1 |
| 20260506005100 | 60 | 256 | 0.0 | 2.0 | 0.01 | 0.32 | 0.32 | 88 | 1007.1 |
| 20260506005000 | 60 | 256 | 0.0 | 2.0 | 0.01 | 0.32 | 0.32 | 87 | 1007.1 |
| 20260506004900 | 60 | 255 | 0.0 | 2.0 | 0.01 | 0.32 | 0.32 | 87 | 1007.1 |
| 20260506004801 | 60 | 215 | 0.0 | 2.0 | 0.01 | 0.32 | 0.32 | 88 | 1007.1 |
| 20260506004701 | 60 | 165 | 0.0 | 2.0 | 0.01 | 0.32 | 0.32 | 87 | 1007.0 |
| 20260506004601 | 60 | 219 | 1.0 | 2.0 | 0.01 | 0.32 | 0.32 | 87 | 1006.9 |
| 20260506004501 | 60 | 271 | 0.0 | 2.0 | 0.01 | 0.32 | 0.32 | 87 | 1006.9 |
| 20260506004400 | 60 | 244 | 0.0 | 2.0 | 0.01 | 0.32 | 0.32 | 87 | 1006.8 |
| 20260506004300 | 60 | 242 | 0.0 | 2.0 | 0.01 | 0.32 | 0.32 | 87 | 1006.7 |
| 20260506004101 | 60 | 184 | 0.0 | 1.0 | 0.01 | 0.32 | 0.32 | 87 | 1006.6 |
| 20260506004000 | 60 | 233 | 0.0 | 1.0 | 0.01 | 0.32 | 0.32 | 87 | 1006.7 |
| 20260506003800 | 60 | 242 | 0.0 | 1.0 | 0.01 | 0.32 | 0.32 | 87 | 1006.7 |
| 20260506003702 | 60 | 265 | 0.0 | 1.0 | 0.01 | 0.32 | 0.32 | 87 | 1006.5 |
| 20260506003601 | 60 | 265 | 0.0 | 1.0 | 0.01 | 0.32 | 0.32 | 87 | 1006.5 |
| 20260506003403 | 60 | 193 | 0.0 | 1.0 | 0.01 | 0.32 | 0.32 | 87 | 1006.5 |
| 20260506003301 | 60 | 5 | 0.0 | 0.0 | 0.01 | 0.32 | 0.32 | 88 | 1006.4 |
| 20260506003102 | 60 | 109 | 0.0 | 3.0 | 0.01 | 0.32 | 0.32 | 88 | 1006.4 |
| 20260506003002 | 60 | 109 | 0.0 | 3.0 | 0.01 | 0.32 | 0.32 | 88 | 1006.6 |
| 20260506002900 | 60 | 105 | 0.0 | 5.0 | 0.01 | 0.32 | 0.32 | 88 | 1006.5 |
| 20260506002803 | 60 | 103 | 0.0 | 5.0 | 0.01 | 0.32 | 0.32 | 87 | 1006.5 |
| 20260506002600 | 60 | 196 | 0.0 | 5.0 | 0.02 | 0.32 | 0.32 | 88 | 1006.5 |
| 20260506002401 | 60 | 145 | 0.0 | 5.0 | 0.02 | 0.32 | 0.32 | 88 | 1006.5 |
| 20260506002300 | 60 | 121 | 0.0 | 5.0 | 0.02 | 0.32 | 0.32 | 88 | 1006.5 |
| 20260506002201 | 60 | 161 | 0.0 | 5.0 | 0.02 | 0.32 | 0.32 | 87 | 1006.5 |
| 20260506002102 | 60 | 161 | 2.0 | 4.0 | 0.02 | 0.32 | 0.32 | 88 | 1006.5 |
| 20260506002000 | 60 | 146 | 0.0 | 0.0 | 0.02 | 0.32 | 0.32 | 87 | 1006.5 |
| 20260506001901 | 60 | 138 | 0.0 | 0.0 | 0.02 | 0.32 | 0.32 | 87 | 1006.5 |
| 20260506001700 | 60 | 134 | 0.0 | 0.0 | 0.02 | 0.32 | 0.32 | 88 | 1006.5 |
| 20260506001600 | 60 | 134 | 0.0 | 0.0 | 0.02 | 0.32 | 0.32 | 88 | 1006.6 |
| 20260506001502 | 60 | 134 | 0.0 | 0.0 | 0.02 | 0.32 | 0.32 | 88 | 1006.4 |
| 20260506001400 | 60 | 134 | 0.0 | 0.0 | 0.02 | 0.32 | 0.32 | 87 | 1006.5 |
| 20260506001301 | 60 | 142 | 0.0 | 0.0 | 0.02 | 0.32 | 0.32 | 87 | 1006.4 |
| 20260506001202 | 60 | 167 | 0.0 | 0.0 | 0.02 | 0.32 | 0.32 | 87 | 1006.4 |
| 20260506001102 | 60 | 155 | 0.0 | 0.0 | 0.03 | 0.32 | 0.32 | 88 | 1006.5 |
| 20260506001000 | 60 | 207 | 0.0 | 2.0 | 0.03 | 0.32 | 0.32 | 87 | 1006.6 |
| 20260506000901 | 60 | 200 | 0.0 | 2.0 | 0.03 | 0.32 | 0.32 | 87 | 1006.6 |
| 20260506000801 | 60 | 200 | 0.0 | 2.0 | 0.03 | 0.32 | 0.32 | 87 | 1006.5 |
| 20260506000659 | 60 | 165 | 0.0 | 2.0 | 0.03 | 0.32 | 0.32 | 87 | 1006.5 |
| 20260506000601 | 60 | 165 | 0.0 | 2.0 | 0.03 | 0.32 | 0.32 | 87 | 1006.5 |
| 20260506000502 | 60 | 165 | 0.0 | 2.0 | 0.02 | 0.31 | 0.31 | 87 | 1006.5 |
| 20260506000402 | 60 | 165 | 0.0 | 2.0 | 0.02 | 0.31 | 0.31 | 87 | 1006.5 |
| 20260506000302 | 60 | 165 | 0.0 | 2.0 | 0.02 | 0.31 | 0.31 | 87 | 1006.5 |
| 20260506000201 | 60 | 165 | 0.0 | 2.0 | 0.02 | 0.31 | 0.31 | 87 | 1006.4 |
| 20260506000100 | 60 | 186 | 0.0 | 3.0 | 0.02 | 0.31 | 0.31 | 87 | 1006.4 |
| 20260506000005 | 60 | 186 | 0.0 | 3.0 | 0.02 | 0.31 | 0.31 | 87 | 1006.3 |
| 20260505235800 | 60 | 163 | 0.0 | 3.0 | 0.02 | 0.31 | 0.31 | 87 | 1006.4 |
| 20260505235700 | 60 | 163 | 0.0 | 3.0 | 0.02 | 0.31 | 0.31 | 87 | 1006.4 |
| 20260505235600 | 60 | 189 | 0.0 | 3.0 | 0.02 | 0.31 | 0.31 | 87 | 1006.3 |
| 20260505235501 | 60 | 189 | 0.0 | 3.0 | 0.02 | 0.31 | 0.31 | 87 | 1006.3 |
| 20260505235400 | 60 | 189 | 0.0 | 3.0 | 0.02 | 0.31 | 0.31 | 87 | 1006.2 |
| 20260505235201 | 60 | 196 | 0.0 | 1.0 | 0.02 | 0.31 | 0.31 | 87 | 1006.1 |
| 20260505235101 | 60 | 196 | 0.0 | 1.0 | 0.02 | 0.31 | 0.31 | 87 | 1006.3 |
| 20260505235000 | 60 | 196 | 0.0 | 1.0 | 0.02 | 0.31 | 0.31 | 87 | 1006.1 |
| 20260505234800 | 60 | 196 | 1.0 | 2.0 | 0.02 | 0.31 | 0.31 | 87 | 1006.3 |
| 20260505234559 | 60 | 196 | 0.0 | 2.0 | 0.02 | 0.31 | 0.31 | 87 | 1006.3 |
| 20260505234501 | 60 | 225 | 0.0 | 2.0 | 0.02 | 0.31 | 0.31 | 87 | 1006.4 |
| 20260505234401 | 60 | 161 | 0.0 | 2.0 | 0.02 | 0.31 | 0.31 | 87 | 1006.3 |
| 20260505234300 | 60 | 161 | 0.0 | 3.0 | 0.02 | 0.31 | 0.31 | 87 | 1006.3 |
| 20260505234201 | 60 | 161 | 0.0 | 3.0 | 0.02 | 0.31 | 0.31 | 87 | 1006.3 |
| 20260505234100 | 60 | 161 | 0.0 | 3.0 | 0.02 | 0.31 | 0.31 | 87 | 1006.4 |
| 20260505234002 | 60 | 155 | 0.0 | 3.0 | 0.02 | 0.31 | 0.31 | 87 | 1006.5 |
| 20260505233900 | 60 | 211 | 0.0 | 3.0 | 0.02 | 0.31 | 0.31 | 87 | 1006.6 |
| 20260505233800 | 60 | 160 | 0.0 | 3.0 | 0.02 | 0.31 | 0.31 | 87 | 1006.7 |
| 20260505233701 | 60 | 168 | 0.0 | 3.0 | 0.02 | 0.31 | 0.31 | 87 | 1006.6 |
| 20260505233301 | 60 | 180 | 0.0 | 3.0 | 0.02 | 0.31 | 0.31 | 87 | 1006.6 |
| 20260505233202 | 60 | 176 | 1.0 | 3.0 | 0.02 | 0.31 | 0.31 | 87 | 1006.6 |
| 20260505233101 | 60 | 185 | 0.0 | 2.0 | 0.02 | 0.31 | 0.31 | 87 | 1006.6 |
| 20260505233002 | 60 | 185 | 0.0 | 2.0 | 0.02 | 0.31 | 0.31 | 87 | 1006.6 |
| 20260505232901 | 60 | 178 | 0.0 | 2.0 | 0.02 | 0.31 | 0.31 | 87 | 1006.6 |
| 20260505232802 | 60 | 162 | 1.0 | 5.0 | 0.02 | 0.31 | 0.31 | 87 | 1006.5 |
| 20260505232701 | 60 | 159 | 0.0 | 5.0 | 0.02 | 0.31 | 0.31 | 86 | 1006.5 |
| 20260505232600 | 60 | 159 | 0.0 | 5.0 | 0.01 | 0.30 | 0.30 | 86 | 1006.6 |
| 20260505232500 | 60 | 159 | 1.0 | 5.0 | 0.01 | 0.30 | 0.30 | 86 | 1006.4 |
| 20260505232305 | 60 | 135 | 0.0 | 5.0 | 0.01 | 0.30 | 0.30 | 86 | 1006.6 |
| 20260505232201 | 60 | 135 | 0.0 | 5.0 | 0.01 | 0.30 | 0.30 | 86 | 1006.5 |
| 20260505232101 | 60 | 223 | 0.0 | 5.0 | 0.01 | 0.30 | 0.30 | 86 | 1006.6 |
| 20260505232001 | 60 | 223 | 0.0 | 5.0 | 0.01 | 0.30 | 0.30 | 86 | 1006.8 |
| 20260505231900 | 60 | 244 | 1.0 | 4.0 | 0.01 | 0.30 | 0.30 | 86 | 1006.8 |
| 20260505231801 | 60 | 152 | 0.0 | 4.0 | 0.01 | 0.30 | 0.30 | 86 | 1006.8 |
| 20260505231702 | 61 | 166 | 1.0 | 5.0 | 0.01 | 0.30 | 0.30 | 86 | 1006.9 |
| 20260505231601 | 61 | 203 | 3.0 | 5.0 | 0.01 | 0.30 | 0.30 | 87 | 1007.0 |
| 20260505231500 | 61 | 123 | 0.0 | 5.0 | 0.01 | 0.30 | 0.30 | 87 | 1007.1 |
| 20260505231403 | 61 | 128 | 0.0 | 5.0 | 0.01 | 0.30 | 0.30 | 87 | 1007.0 |
| 20260505231303 | 61 | 75 | 0.0 | 7.0 | 0.01 | 0.30 | 0.30 | 87 | 1007.0 |
| 20260505231200 | 61 | 171 | 0.0 | 7.0 | 0.01 | 0.30 | 0.30 | 87 | 1007.0 |
| 20260505231101 | 61 | 230 | 0.0 | 7.0 | 0.00 | 0.29 | 0.29 | 87 | 1006.9 |
| 20260505230800 | 61 | 161 | 0.0 | 7.0 | 0.00 | 0.29 | 0.29 | 87 | 1007.0 |
| 20260505230602 | 61 | 180 | 1.0 | 7.0 | 0.00 | 0.29 | 0.29 | 87 | 1006.9 |
| 20260505230401 | 61 | 148 | 0.0 | 6.0 | 0.00 | 0.29 | 0.29 | 87 | 1007.0 |
| 20260505230300 | 61 | 61 | 0.0 | 6.0 | 0.00 | 0.29 | 0.29 | 87 | 1006.9 |
| 20260505230200 | 61 | 150 | 0.0 | 6.0 | 0.00 | 0.29 | 0.29 | 87 | 1007.0 |
| 20260505230003 | 61 | 286 | 2.0 | 6.0 | 0.00 | 0.29 | 0.29 | 87 | 1007.1 |
| 20260505225900 | 61 | 229 | 2.0 | 6.0 | 0.00 | 0.29 | 0.29 | 87 | 1007.0 |
| 20260505225801 | 61 | 174 | 1.0 | 6.0 | 0.00 | 0.29 | 0.29 | 87 | 1007.1 |
| 20260505225600 | 61 | 159 | 2.0 | 7.0 | 0.00 | 0.29 | 0.29 | 87 | 1007.0 |
| 20260505225500 | 61 | 183 | 3.0 | 6.0 | 0.00 | 0.29 | 0.29 | 87 | 1007.0 |
| 20260505225401 | 61 | 171 | 2.0 | 6.0 | 0.00 | 0.29 | 0.29 | 87 | 1007.0 |
| 20260505225300 | 61 | 203 | 1.0 | 6.0 | 0.00 | 0.29 | 0.29 | 88 | 1007.0 |
| 20260505225201 | 61 | 68 | 2.0 | 6.0 | 0.00 | 0.29 | 0.29 | 88 | 1007.0 |
| 20260505225002 | 61 | 120 | 0.0 | 6.0 | 0.00 | 0.29 | 0.29 | 87 | 1007.0 |
| 20260505224901 | 61 | 126 | 0.0 | 6.0 | 0.00 | 0.29 | 0.29 | 87 | 1007.0 |
| 20260505224800 | 61 | 148 | 5.0 | 6.0 | 0.00 | 0.29 | 0.29 | 88 | 1007.0 |
| 20260505224502 | 61 | 179 | 0.0 | 6.0 | 0.00 | 0.29 | 0.29 | 88 | 1007.2 |
| 20260505224400 | 61 | 130 | 1.0 | 6.0 | 0.00 | 0.29 | 0.29 | 87 | 1007.1 |
| 20260505224201 | 61 | 150 | 3.0 | 6.0 | 0.00 | 0.29 | 0.29 | 87 | 1007.1 |
| 20260505224101 | 61 | 136 | 4.0 | 7.0 | 0.00 | 0.29 | 0.29 | 87 | 1007.1 |
| 20260505223900 | 61 | 148 | 0.0 | 8.0 | 0.00 | 0.29 | 0.29 | 88 | 1007.1 |
| 20260505223802 | 61 | 133 | 0.0 | 8.0 | 0.00 | 0.29 | 0.29 | 88 | 1007.1 |
| 20260505223700 | 61 | 163 | 0.0 | 8.0 | 0.01 | 0.29 | 0.29 | 88 | 1007.2 |
| 20260505223601 | 61 | 132 | 0.0 | 8.0 | 0.01 | 0.29 | 0.29 | 87 | 1007.2 |
| 20260505223500 | 61 | 123 | 0.0 | 8.0 | 0.01 | 0.29 | 0.29 | 87 | 1007.1 |
| 20260505223402 | 61 | 128 | 0.0 | 8.0 | 0.01 | 0.29 | 0.29 | 87 | 1007.1 |
| 20260505223202 | 61 | 122 | 7.0 | 8.0 | 0.01 | 0.29 | 0.29 | 88 | 1007.3 |
| 20260505223100 | 61 | 157 | 3.0 | 8.0 | 0.01 | 0.29 | 0.29 | 88 | 1007.3 |
| 20260505223000 | 61 | 192 | 0.0 | 8.0 | 0.01 | 0.29 | 0.29 | 88 | 1007.3 |
| 20260505222900 | 61 | 192 | 0.0 | 8.0 | 0.01 | 0.29 | 0.29 | 88 | 1007.3 |
| 20260505222801 | 61 | 147 | 0.0 | 8.0 | 0.01 | 0.29 | 0.29 | 88 | 1007.3 |
| 20260505222701 | 61 | 146 | 3.0 | 8.0 | 0.01 | 0.29 | 0.29 | 88 | 1007.2 |
| 20260505222600 | 61 | 148 | 1.0 | 8.0 | 0.01 | 0.29 | 0.29 | 88 | 1007.2 |
| 20260505222500 | 61 | 168 | 1.0 | 8.0 | 0.01 | 0.29 | 0.29 | 88 | 1007.3 |
| 20260505222401 | 61 | 159 | 1.0 | 8.0 | 0.01 | 0.29 | 0.29 | 88 | 1007.3 |
| 20260505222300 | 61 | 139 | 0.0 | 8.0 | 0.02 | 0.29 | 0.29 | 88 | 1007.3 |
| 20260505222101 | 61 | 280 | 3.0 | 7.0 | 0.02 | 0.29 | 0.29 | 88 | 1007.3 |
| 20260505222002 | 61 | 203 | 1.0 | 6.0 | 0.02 | 0.29 | 0.29 | 88 | 1007.3 |
| 20260505221901 | 61 | 156 | 3.0 | 6.0 | 0.02 | 0.29 | 0.29 | 88 | 1007.3 |
| 20260505221801 | 61 | 313 | 2.0 | 5.0 | 0.02 | 0.29 | 0.29 | 89 | 1007.3 |
| 20260505221700 | 61 | 188 | 3.0 | 5.0 | 0.02 | 0.29 | 0.29 | 89 | 1007.3 |
| 20260505221601 | 61 | 161 | 0.0 | 5.0 | 0.03 | 0.29 | 0.29 | 89 | 1007.4 |
| 20260505221501 | 61 | 160 | 2.0 | 5.0 | 0.03 | 0.29 | 0.29 | 89 | 1007.4 |
| 20260505221301 | 61 | 281 | 0.0 | 3.0 | 0.03 | 0.29 | 0.29 | 89 | 1007.4 |
| 20260505221200 | 61 | 182 | 0.0 | 3.0 | 0.03 | 0.29 | 0.29 | 89 | 1007.5 |
| 20260505221001 | 61 | 177 | 1.0 | 6.0 | 0.03 | 0.29 | 0.29 | 89 | 1007.5 |
| 20260505220901 | 61 | 207 | 0.0 | 6.0 | 0.03 | 0.29 | 0.29 | 89 | 1007.6 |
| 20260505220801 | 61 | 152 | 1.0 | 6.0 | 0.03 | 0.29 | 0.29 | 89 | 1007.6 |
| 20260505220701 | 60 | 150 | 0.0 | 6.0 | 0.03 | 0.29 | 0.29 | 89 | 1007.5 |
| 20260505220601 | 60 | 144 | 2.0 | 6.0 | 0.03 | 0.29 | 0.29 | 88 | 1007.6 |
| 20260505220501 | 60 | 169 | 2.0 | 6.0 | 0.03 | 0.29 | 0.29 | 89 | 1007.6 |
| 20260505220300 | 61 | 205 | 4.0 | 6.0 | 0.04 | 0.29 | 0.29 | 89 | 1007.5 |
| 20260505220202 | 60 | 161 | 5.0 | 5.0 | 0.04 | 0.29 | 0.29 | 89 | 1007.6 |
| 20260505220000 | 60 | 240 | 1.0 | 6.0 | 0.04 | 0.29 | 0.29 | 89 | 1007.6 |
| 20260505215900 | 61 | 134 | 4.0 | 6.0 | 0.04 | 0.29 | 0.29 | 89 | 1007.6 |
| 20260505215801 | 60 | 137 | 2.0 | 9.0 | 0.04 | 0.29 | 0.29 | 89 | 1007.6 |
| 20260505215702 | 60 | 142 | 1.0 | 9.0 | 0.04 | 0.29 | 0.29 | 89 | 1007.7 |
| 20260505215600 | 61 | 278 | 0.0 | 9.0 | 0.04 | 0.29 | 0.29 | 89 | 1007.6 |
| 20260505215500 | 60 | 278 | 1.0 | 9.0 | 0.04 | 0.29 | 0.29 | 89 | 1007.6 |
| 20260505215401 | 61 | 107 | 1.0 | 9.0 | 0.04 | 0.29 | 0.29 | 89 | 1007.7 |
| 20260505215300 | 61 | 73 | 1.0 | 9.0 | 0.04 | 0.29 | 0.29 | 89 | 1007.6 |
| 20260505215201 | 60 | 244 | 1.0 | 9.0 | 0.04 | 0.29 | 0.29 | 89 | 1007.7 |
| 20260505215100 | 60 | 204 | 0.0 | 9.0 | 0.04 | 0.29 | 0.29 | 89 | 1007.7 |
| 20260505215000 | 60 | 84 | 3.0 | 9.0 | 0.04 | 0.29 | 0.29 | 89 | 1007.6 |
| 20260505214903 | 60 | 215 | 5.0 | 7.0 | 0.04 | 0.29 | 0.29 | 89 | 1007.7 |
| 20260505214801 | 60 | 199 | 2.0 | 7.0 | 0.04 | 0.29 | 0.29 | 89 | 1007.7 |
| 20260505214700 | 61 | 250 | 0.0 | 7.0 | 0.04 | 0.29 | 0.29 | 89 | 1007.7 |
| 20260505214602 | 60 | 246 | 2.0 | 7.0 | 0.04 | 0.29 | 0.29 | 89 | 1007.8 |
| 20260505214501 | 60 | 85 | 0.0 | 6.0 | 0.04 | 0.29 | 0.29 | 89 | 1007.8 |
| 20260505214401 | 61 | 55 | 0.0 | 6.0 | 0.04 | 0.29 | 0.29 | 89 | 1007.9 |
| 20260505214300 | 61 | 34 | 2.0 | 6.0 | 0.04 | 0.29 | 0.29 | 89 | 1007.9 |
| 20260505214200 | 60 | 227 | 4.0 | 5.0 | 0.04 | 0.29 | 0.29 | 89 | 1007.8 |
| 20260505214100 | 60 | 190 | 1.0 | 5.0 | 0.05 | 0.29 | 0.29 | 89 | 1007.9 |
| 20260505214001 | 60 | 133 | 0.0 | 5.0 | 0.05 | 0.29 | 0.29 | 89 | 1007.8 |
| 20260505213901 | 60 | 96 | 1.0 | 5.0 | 0.05 | 0.29 | 0.29 | 89 | 1007.9 |
| 20260505213800 | 60 | 162 | 1.0 | 7.0 | 0.05 | 0.29 | 0.29 | 89 | 1007.8 |
| 20260505213701 | 60 | 149 | 4.0 | 7.0 | 0.04 | 0.28 | 0.28 | 89 | 1007.9 |
| 20260505213400 | 60 | 200 | 4.0 | 7.0 | 0.04 | 0.28 | 0.28 | 89 | 1007.9 |
| 20260505213300 | 60 | 221 | 0.0 | 7.0 | 0.05 | 0.28 | 0.28 | 89 | 1007.9 |
| 20260505213200 | 60 | 117 | 1.0 | 7.0 | 0.05 | 0.28 | 0.28 | 89 | 1007.8 |
| 20260505213101 | 60 | 151 | 2.0 | 7.0 | 0.05 | 0.28 | 0.28 | 89 | 1007.9 |
| 20260505213001 | 60 | 175 | 1.0 | 7.0 | 0.05 | 0.28 | 0.28 | 89 | 1007.9 |
| 20260505212802 | 61 | 154 | 2.0 | 6.0 | 0.05 | 0.28 | 0.28 | 89 | 1007.9 |
| 20260505212700 | 60 | 270 | 0.0 | 4.0 | 0.05 | 0.28 | 0.28 | 89 | 1007.9 |
| 20260505212601 | 61 | 279 | 1.0 | 4.0 | 0.05 | 0.28 | 0.28 | 89 | 1007.9 |
| 20260505212402 | 61 | 193 | 2.0 | 6.0 | 0.06 | 0.28 | 0.28 | 89 | 1007.8 |
| 20260505212101 | 60 | 223 | 0.0 | 6.0 | 0.05 | 0.27 | 0.27 | 89 | 1007.8 |
| 20260505212000 | 60 | 254 | 0.0 | 6.0 | 0.05 | 0.27 | 0.27 | 89 | 1007.8 |
| 20260505211901 | 60 | 111 | 0.0 | 6.0 | 0.05 | 0.27 | 0.27 | 89 | 1007.8 |
| 20260505211800 | 60 | 208 | 0.0 | 6.0 | 0.06 | 0.27 | 0.27 | 89 | 1007.7 |
| 20260505211600 | 60 | 235 | 4.0 | 6.0 | 0.05 | 0.26 | 0.26 | 89 | 1007.8 |
| 20260505211502 | 60 | 153 | 1.0 | 7.0 | 0.06 | 0.26 | 0.26 | 89 | 1007.8 |
| 20260505211401 | 60 | 143 | 4.0 | 7.0 | 0.06 | 0.26 | 0.26 | 89 | 1007.9 |
| 20260505211300 | 60 | 205 | 4.0 | 7.0 | 0.06 | 0.26 | 0.26 | 89 | 1008.0 |
| 20260505211200 | 60 | 189 | 0.0 | 7.0 | 0.06 | 0.26 | 0.26 | 89 | 1008.0 |
| 20260505211100 | 60 | 216 | 0.0 | 7.0 | 0.06 | 0.26 | 0.26 | 89 | 1008.0 |
| 20260505210901 | 60 | 99 | 2.0 | 7.0 | 0.06 | 0.26 | 0.26 | 89 | 1008.0 |
| 20260505210800 | 60 | 263 | 1.0 | 7.0 | 0.06 | 0.26 | 0.26 | 89 | 1008.0 |
| 20260505210701 | 60 | 208 | 4.0 | 9.0 | 0.07 | 0.26 | 0.26 | 89 | 1008.0 |
| 20260505210400 | 60 | 146 | 1.0 | 9.0 | 0.07 | 0.26 | 0.26 | 89 | 1008.0 |
| 20260505210301 | 60 | 190 | 0.0 | 9.0 | 0.06 | 0.25 | 0.25 | 89 | 1008.0 |
| 20260505210201 | 60 | 159 | 2.0 | 9.0 | 0.06 | 0.25 | 0.25 | 89 | 1007.9 |
| 20260505205902 | 60 | 300 | 0.0 | 9.0 | 0.06 | 0.25 | 0.25 | 89 | 1007.9 |
| 20260505205800 | 60 | 165 | 9.0 | 9.0 | 0.06 | 0.25 | 0.25 | 89 | 1007.9 |
| 20260505205600 | 60 | 163 | 0.0 | 5.0 | 0.06 | 0.25 | 0.25 | 89 | 1008.0 |
| 20260505205501 | 60 | 184 | 0.0 | 5.0 | 0.06 | 0.25 | 0.25 | 89 | 1008.0 |
| 20260505205304 | 60 | 120 | 2.0 | 3.0 | 0.06 | 0.25 | 0.25 | 89 | 1008.0 |
| 20260505205200 | 60 | 219 | 1.0 | 3.0 | 0.07 | 0.25 | 0.25 | 89 | 1007.9 |
| 20260505205103 | 60 | 216 | 0.0 | 3.0 | 0.07 | 0.25 | 0.25 | 89 | 1007.9 |
| 20260505205000 | 60 | 192 | 0.0 | 3.0 | 0.07 | 0.25 | 0.25 | 89 | 1008.0 |
| 20260505204904 | 60 | 202 | 1.0 | 3.0 | 0.07 | 0.25 | 0.25 | 89 | 1008.0 |
| 20260505204800 | 60 | 281 | 0.0 | 4.0 | 0.07 | 0.25 | 0.25 | 89 | 1008.0 |
| 20260505204701 | 60 | 228 | 2.0 | 4.0 | 0.07 | 0.25 | 0.25 | 89 | 1008.0 |
| 20260505204402 | 60 | 200 | 0.0 | 4.0 | 0.08 | 0.25 | 0.25 | 88 | 1008.1 |
| 20260505204301 | 60 | 231 | 1.0 | 6.0 | 0.08 | 0.25 | 0.25 | 88 | 1008.2 |
| 20260505204200 | 60 | 232 | 0.0 | 6.0 | 0.08 | 0.25 | 0.25 | 88 | 1008.1 |
| 20260505204102 | 60 | 161 | 1.0 | 6.0 | 0.07 | 0.24 | 0.24 | 88 | 1008.1 |
| 20260505204001 | 60 | 200 | 3.0 | 6.0 | 0.07 | 0.24 | 0.24 | 88 | 1008.0 |
| 20260505203900 | 60 | 194 | 0.0 | 6.0 | 0.07 | 0.24 | 0.24 | 88 | 1008.1 |
| 20260505203700 | 60 | 207 | 2.0 | 8.0 | 0.07 | 0.24 | 0.24 | 88 | 1008.1 |
| 20260505203601 | 60 | 197 | 4.0 | 8.0 | 0.07 | 0.24 | 0.24 | 88 | 1008.2 |
| 20260505203501 | 60 | 225 | 2.0 | 8.0 | 0.08 | 0.24 | 0.24 | 88 | 1008.1 |
| 20260505203401 | 60 | 198 | 2.0 | 8.0 | 0.08 | 0.24 | 0.24 | 88 | 1008.2 |
| 20260505203300 | 60 | 210 | 1.0 | 8.0 | 0.07 | 0.23 | 0.23 | 88 | 1008.1 |
| 20260505203100 | 60 | 221 | 3.0 | 8.0 | 0.07 | 0.23 | 0.23 | 88 | 1008.0 |
| 20260505203002 | 60 | 171 | 1.0 | 8.0 | 0.08 | 0.23 | 0.23 | 88 | 1008.1 |
| 20260505202900 | 60 | 246 | 2.0 | 8.0 | 0.08 | 0.23 | 0.23 | 88 | 1008.2 |
| 20260505202701 | 60 | 179 | 1.0 | 7.0 | 0.08 | 0.23 | 0.23 | 88 | 1008.1 |
| 20260505202601 | 60 | 186 | 2.0 | 7.0 | 0.09 | 0.23 | 0.23 | 88 | 1008.2 |
| 20260505202500 | 60 | 194 | 0.0 | 7.0 | 0.09 | 0.22 | 0.22 | 88 | 1008.2 |
| 20260505202400 | 60 | 220 | 3.0 | 7.0 | 0.09 | 0.22 | 0.22 | 88 | 1008.2 |
| 20260505202300 | 60 | 191 | 1.0 | 7.0 | 0.11 | 0.22 | 0.22 | 88 | 1008.2 |
| 20260505202200 | 60 | 275 | 1.0 | 7.0 | 0.13 | 0.22 | 0.22 | 88 | 1008.3 |
| 20260505202101 | 61 | 196 | 3.0 | 7.0 | 0.13 | 0.22 | 0.22 | 88 | 1008.2 |
| 20260505201901 | 61 | 157 | 5.0 | 5.0 | 0.14 | 0.22 | 0.22 | 88 | 1008.3 |
| 20260505201800 | 60 | 193 | 2.0 | 6.0 | 0.13 | 0.21 | 0.21 | 88 | 1008.2 |
| 20260505201703 | 61 | 199 | 0.0 | 6.0 | 0.13 | 0.21 | 0.21 | 88 | 1008.3 |
| 20260505201601 | 61 | 199 | 0.0 | 6.0 | 0.13 | 0.21 | 0.21 | 88 | 1008.3 |
| 20260505201500 | 61 | 183 | 0.0 | 6.0 | 0.13 | 0.20 | 0.20 | 88 | 1008.2 |
| 20260505201401 | 61 | 207 | 2.0 | 6.0 | 0.13 | 0.20 | 0.20 | 88 | 1008.3 |
| 20260505201302 | 61 | 261 | 1.0 | 6.0 | 0.13 | 0.20 | 0.20 | 88 | 1008.3 |
| 20260505201200 | 61 | 240 | 1.0 | 6.0 | 0.13 | 0.20 | 0.20 | 87 | 1008.3 |
| 20260505201000 | 61 | 202 | 0.0 | 6.0 | 0.13 | 0.20 | 0.20 | 87 | 1008.2 |
| 20260505200901 | 61 | 140 | 1.0 | 7.0 | 0.13 | 0.20 | 0.20 | 87 | 1008.2 |
| 20260505200804 | 61 | 177 | 2.0 | 7.0 | 0.13 | 0.20 | 0.20 | 87 | 1008.3 |
| 20260505200701 | 61 | 70 | 4.0 | 8.0 | 0.12 | 0.19 | 0.19 | 87 | 1008.2 |
| 20260505200605 | 61 | 274 | 4.0 | 10.0 | 0.12 | 0.19 | 0.19 | 87 | 1008.4 |
| 20260505200500 | 61 | 202 | 2.0 | 10.0 | 0.12 | 0.19 | 0.19 | 87 | 1008.4 |
| 20260505200301 | 61 | 221 | 1.0 | 10.0 | 0.12 | 0.19 | 0.19 | 87 | 1008.4 |
| 20260505200201 | 61 | 161 | 5.0 | 10.0 | 0.12 | 0.19 | 0.19 | 87 | 1008.4 |
| 20260505195802 | 61 | 238 | 5.0 | 10.0 | 0.12 | 0.19 | 0.19 | 87 | 1008.3 |
| 20260505195701 | 61 | 191 | 2.0 | 6.0 | 0.12 | 0.19 | 0.19 | 87 | 1008.3 |
| 20260505195559 | 61 | 169 | 4.0 | 6.0 | 0.12 | 0.19 | 0.19 | 87 | 1008.3 |
| 20260505195400 | 61 | 247 | 1.0 | 5.0 | 0.12 | 0.19 | 0.19 | 87 | 1008.3 |
| 20260505195301 | 61 | 192 | 1.0 | 5.0 | 0.11 | 0.18 | 0.18 | 87 | 1008.4 |
| 20260505195200 | 61 | 198 | 2.0 | 5.0 | 0.11 | 0.18 | 0.18 | 86 | 1008.3 |
| 20260505195000 | 61 | 130 | 1.0 | 6.0 | 0.11 | 0.18 | 0.18 | 86 | 1008.4 |
| 20260505194800 | 61 | 198 | 2.0 | 6.0 | 0.11 | 0.18 | 0.18 | 86 | 1008.4 |
| 20260505194701 | 61 | 148 | 3.0 | 6.0 | 0.11 | 0.18 | 0.18 | 86 | 1008.3 |
| 20260505194600 | 61 | 185 | 2.0 | 6.0 | 0.11 | 0.18 | 0.18 | 86 | 1008.4 |
| 20260505194501 | 61 | 205 | 0.0 | 6.0 | 0.11 | 0.18 | 0.18 | 86 | 1008.4 |
| 20260505194402 | 61 | 196 | 0.0 | 6.0 | 0.10 | 0.17 | 0.17 | 86 | 1008.5 |
| 20260505194301 | 61 | 192 | 1.0 | 7.0 | 0.10 | 0.17 | 0.17 | 86 | 1008.4 |
| 20260505194200 | 61 | 192 | 2.0 | 6.0 | 0.10 | 0.17 | 0.17 | 85 | 1008.4 |
| 20260505194100 | 61 | 292 | 0.0 | 4.0 | 0.10 | 0.17 | 0.17 | 85 | 1008.4 |
| 20260505193902 | 61 | 191 | 0.0 | 8.0 | 0.10 | 0.17 | 0.17 | 85 | 1008.5 |
| 20260505193800 | 61 | 142 | 1.0 | 8.0 | 0.10 | 0.17 | 0.17 | 85 | 1008.5 |
| 20260505193700 | 61 | 21 | 1.0 | 8.0 | 0.10 | 0.17 | 0.17 | 84 | 1008.5 |
| 20260505193601 | 62 | 203 | 1.0 | 10.0 | 0.10 | 0.17 | 0.17 | 84 | 1008.5 |
| 20260505193500 | 62 | 230 | 2.0 | 10.0 | 0.09 | 0.16 | 0.16 | 84 | 1008.5 |
| 20260505193302 | 62 | 252 | 1.0 | 10.0 | 0.09 | 0.16 | 0.16 | 83 | 1008.6 |
| 20260505193202 | 62 | 169 | 2.0 | 10.0 | 0.09 | 0.16 | 0.16 | 83 | 1008.6 |
| 20260505193100 | 62 | 192 | 4.0 | 10.0 | 0.09 | 0.16 | 0.16 | 83 | 1008.5 |
| 20260505192800 | 63 | 259 | 3.0 | 10.0 | 0.08 | 0.15 | 0.15 | 81 | 1008.5 |
| 20260505192701 | 63 | 213 | 2.0 | 10.0 | 0.07 | 0.14 | 0.14 | 80 | 1008.6 |
| 20260505192601 | 63 | 156 | 6.0 | 9.0 | 0.07 | 0.14 | 0.14 | 80 | 1008.7 |
| 20260505192500 | 63 | 217 | 0.0 | 10.0 | 0.06 | 0.13 | 0.13 | 79 | 1008.7 |
| 20260505192305 | 64 | 325 | 1.0 | 12.0 | 0.04 | 0.11 | 0.11 | 77 | 1008.8 |
| 20260505192201 | 64 | 119 | 4.0 | 12.0 | 0.02 | 0.09 | 0.09 | 77 | 1008.8 |
| 20260505192003 | 65 | 245 | 3.0 | 12.0 | 0.02 | 0.09 | 0.09 | 75 | 1008.7 |
| 20260505191900 | 65 | 147 | 2.0 | 12.0 | 0.01 | 0.08 | 0.08 | 75 | 1008.7 |
| 20260505191800 | 66 | 198 | 5.0 | 12.0 | 0.01 | 0.08 | 0.08 | 74 | 1008.6 |
| 20260505191701 | 66 | 296 | 5.0 | 12.0 | 0.01 | 0.08 | 0.08 | 73 | 1008.6 |
| 20260505191601 | 66 | 226 | 1.0 | 12.0 | 0.01 | 0.08 | 0.08 | 71 | 1008.6 |
| 20260505191501 | 67 | 69 | 2.0 | 12.0 | 0.00 | 0.07 | 0.07 | 71 | 1008.6 |
| 20260505191401 | 67 | 281 | 7.0 | 9.0 | 0.00 | 0.07 | 0.07 | 69 | 1008.6 |
| 20260505191302 | 67 | 290 | 3.0 | 9.0 | 0.00 | 0.07 | 0.07 | 68 | 1008.6 |
| 20260505191202 | 67 | 87 | 1.0 | 9.0 | 0.00 | 0.07 | 0.07 | 68 | 1008.5 |
| 20260505191101 | 68 | 150 | 3.0 | 9.0 | 0.00 | 0.07 | 0.07 | 67 | 1008.5 |
| 20260505191000 | 68 | 188 | 6.0 | 10.0 | 0.00 | 0.07 | 0.07 | 67 | 1008.3 |
| 20260505190901 | 68 | 128 | 2.0 | 10.0 | 0.00 | 0.07 | 0.07 | 66 | 1008.3 |
| 20260505190700 | 68 | 323 | 4.0 | 10.0 | 0.00 | 0.07 | 0.07 | 65 | 1008.3 |
| 20260505190601 | 68 | 184 | 3.0 | 10.0 | 0.00 | 0.07 | 0.07 | 64 | 1008.2 |
| 20260505190502 | 68 | 284 | 4.0 | 10.0 | 0.00 | 0.07 | 0.07 | 64 | 1008.2 |
| 20260505190301 | 68 | 239 | 3.0 | 10.0 | 0.00 | 0.07 | 0.07 | 63 | 1008.1 |
| 20260505190201 | 68 | 144 | 4.0 | 7.0 | 0.00 | 0.07 | 0.07 | 64 | 1008.2 |
| 20260505190005 | 68 | 224 | 1.0 | 7.0 | 0.00 | 0.07 | 0.07 | 64 | 1008.1 |
| 20260505185903 | 68 | 167 | 4.0 | 11.0 | 0.00 | 0.07 | 0.07 | 64 | 1008.1 |
| 20260505185802 | 68 | 187 | 1.0 | 11.0 | 0.00 | 0.07 | 0.07 | 64 | 1008.1 |
| 20260505185701 | 68 | 260 | 2.0 | 11.0 | 0.00 | 0.07 | 0.07 | 64 | 1008.2 |
| 20260505185600 | 68 | 297 | 2.0 | 11.0 | 0.00 | 0.07 | 0.07 | 65 | 1008.1 |
| 20260505185501 | 68 | 196 | 0.0 | 11.0 | 0.00 | 0.07 | 0.07 | 65 | 1008.1 |
| 20260505185401 | 68 | 229 | 0.0 | 11.0 | 0.00 | 0.07 | 0.07 | 63 | 1008.0 |
| 20260505185300 | 68 | 61 | 3.0 | 11.0 | 0.00 | 0.07 | 0.07 | 64 | 1008.1 |
| 20260505185201 | 68 | 128 | 2.0 | 11.0 | 0.00 | 0.07 | 0.07 | 65 | 1008.2 |
| 20260505184901 | 68 | 170 | 1.0 | 7.0 | 0.00 | 0.07 | 0.07 | 65 | 1008.1 |
| 20260505184700 | 68 | 241 | 2.0 | 7.0 | 0.00 | 0.07 | 0.07 | 65 | 1008.1 |
| 20260505184600 | 68 | 257 | 0.0 | 8.0 | 0.00 | 0.07 | 0.07 | 65 | 1008.1 |
| 20260505184503 | 68 | 226 | 0.0 | 8.0 | 0.00 | 0.07 | 0.07 | 65 | 1008.1 |
| 20260505184300 | 68 | 227 | 1.0 | 8.0 | 0.00 | 0.07 | 0.07 | 64 | 1008.0 |
| 20260505184200 | 68 | 192 | 4.0 | 8.0 | 0.00 | 0.07 | 0.07 | 64 | 1008.1 |
| 20260505184101 | 68 | 265 | 4.0 | 8.0 | 0.00 | 0.07 | 0.07 | 65 | 1008.1 |
| 20260505184001 | 68 | 261 | 1.0 | 8.0 | 0.00 | 0.07 | 0.07 | 64 | 1008.3 |
| 20260505183901 | 68 | 178 | 2.0 | 8.0 | 0.00 | 0.07 | 0.07 | 64 | 1008.1 |
| 20260505183802 | 68 | 341 | 2.0 | 8.0 | 0.00 | 0.07 | 0.07 | 64 | 1008.2 |
| 20260505183700 | 68 | 171 | 6.0 | 9.0 | 0.00 | 0.07 | 0.07 | 64 | 1008.3 |
| 20260505183601 | 68 | 134 | 0.0 | 5.0 | 0.00 | 0.07 | 0.07 | 65 | 1008.3 |
| 20260505183501 | 68 | 278 | 1.0 | 5.0 | 0.00 | 0.07 | 0.07 | 65 | 1008.3 |
| 20260505183401 | 68 | 111 | 3.0 | 5.0 | 0.00 | 0.07 | 0.07 | 65 | 1008.4 |
| 20260505183300 | 68 | 147 | 2.0 | 7.0 | 0.00 | 0.07 | 0.07 | 64 | 1008.3 |
| 20260505183203 | 68 | 209 | 1.0 | 7.0 | 0.00 | 0.07 | 0.07 | 64 | 1008.2 |
| 20260505183001 | 68 | 163 | 2.0 | 7.0 | 0.00 | 0.07 | 0.07 | 64 | 1008.4 |
| 20260505182905 | 68 | 198 | 1.0 | 7.0 | 0.00 | 0.07 | 0.07 | 64 | 1008.4 |
| 20260505182600 | 68 | 187 | 3.0 | 11.0 | 0.00 | 0.07 | 0.07 | 64 | 1008.5 |
| 20260505182500 | 68 | 244 | 2.0 | 11.0 | 0.00 | 0.07 | 0.07 | 63 | 1008.4 |
| 20260505182400 | 68 | 209 | 4.0 | 11.0 | 0.00 | 0.07 | 0.07 | 63 | 1008.5 |
| 20260505182305 | 68 | 281 | 1.0 | 11.0 | 0.00 | 0.07 | 0.07 | 63 | 1008.5 |
| 20260505182201 | 68 | 47 | 1.0 | 11.0 | 0.00 | 0.07 | 0.07 | 63 | 1008.5 |
| 20260505182105 | 68 | 155 | 3.0 | 11.0 | 0.00 | 0.07 | 0.07 | 64 | 1008.5 |
| 20260505182000 | 68 | 213 | 4.0 | 11.0 | 0.00 | 0.07 | 0.07 | 63 | 1008.5 |
| 20260505181900 | 68 | 187 | 11.0 | 11.0 | 0.00 | 0.07 | 0.07 | 64 | 1008.5 |
| 20260505181800 | 68 | 197 | 2.0 | 9.0 | 0.00 | 0.07 | 0.07 | 63 | 1008.5 |
| 20260505181701 | 68 | 317 | 1.0 | 9.0 | 0.00 | 0.07 | 0.07 | 63 | 1008.5 |
| 20260505181601 | 68 | 198 | 4.0 | 9.0 | 0.00 | 0.07 | 0.07 | 64 | 1008.5 |
| 20260505181401 | 68 | 200 | 3.0 | 9.0 | 0.00 | 0.07 | 0.07 | 63 | 1008.4 |
| 20260505181301 | 68 | 117 | 0.0 | 7.0 | 0.00 | 0.07 | 0.07 | 64 | 1008.6 |
| 20260505181201 | 68 | 162 | 0.0 | 7.0 | 0.00 | 0.07 | 0.07 | 63 | 1008.5 |
| 20260505181103 | 68 | 139 | 2.0 | 7.0 | 0.00 | 0.07 | 0.07 | 64 | 1008.6 |
| 20260505181000 | 68 | 184 | 2.0 | 7.0 | 0.00 | 0.07 | 0.07 | 63 | 1008.6 |
| 20260505180800 | 68 | 198 | 4.0 | 7.0 | 0.00 | 0.07 | 0.07 | 63 | 1008.6 |
| 20260505180700 | 68 | 227 | 0.0 | 8.0 | 0.00 | 0.07 | 0.07 | 64 | 1008.6 |
| 20260505180601 | 68 | 283 | 1.0 | 8.0 | 0.00 | 0.07 | 0.07 | 64 | 1008.6 |
| 20260505180501 | 68 | 212 | 1.0 | 9.0 | 0.00 | 0.07 | 0.07 | 64 | 1008.7 |
| 20260505180401 | 68 | 156 | 1.0 | 9.0 | 0.00 | 0.07 | 0.07 | 63 | 1008.7 |
| 20260505180300 | 68 | 212 | 4.0 | 9.0 | 0.00 | 0.07 | 0.07 | 62 | 1008.8 |
| 20260505180200 | 68 | 181 | 4.0 | 9.0 | 0.00 | 0.07 | 0.07 | 62 | 1008.7 |
| 20260505180100 | 68 | 180 | 1.0 | 9.0 | 0.00 | 0.07 | 0.07 | 62 | 1008.8 |
| 20260505180003 | 68 | 218 | 5.0 | 9.0 | 0.00 | 0.07 | 0.07 | 63 | 1008.9 |
| 20260505175903 | 68 | 178 | 1.0 | 9.0 | 0.00 | 0.07 | 0.07 | 63 | 1008.9 |
| 20260505175759 | 68 | 186 | 2.0 | 9.0 | 0.00 | 0.07 | 0.07 | 62 | 1008.9 |
| 20260505175700 | 68 | 216 | 2.0 | 9.0 | 0.00 | 0.07 | 0.07 | 63 | 1008.8 |
| 20260505175603 | 68 | 344 | 3.0 | 10.0 | 0.00 | 0.07 | 0.07 | 63 | 1009.0 |
| 20260505175509 | 68 | 152 | 2.0 | 8.0 | 0.00 | 0.07 | 0.07 | 62 | 1008.9 |
| 20260505175400 | 68 | 234 | 1.0 | 8.0 | 0.00 | 0.07 | 0.07 | 62 | 1008.9 |
| 20260505175305 | 68 | 311 | 3.0 | 8.0 | 0.00 | 0.07 | 0.07 | 62 | 1008.9 |
| 20260505175203 | 68 | 238 | 2.0 | 8.0 | 0.00 | 0.07 | 0.07 | 62 | 1009.0 |
| 20260505175100 | 68 | 213 | 2.0 | 8.0 | 0.00 | 0.07 | 0.07 | 62 | 1008.9 |
| 20260505175000 | 68 | 121 | 2.0 | 8.0 | 0.00 | 0.07 | 0.07 | 63 | 1008.9 |
| 20260505174901 | 68 | 130 | 2.0 | 8.0 | 0.00 | 0.07 | 0.07 | 62 | 1008.9 |
| 20260505174801 | 68 | 138 | 5.0 | 7.0 | 0.00 | 0.07 | 0.07 | 62 | 1008.9 |
| 20260505174702 | 68 | 142 | 1.0 | 7.0 | 0.00 | 0.07 | 0.07 | 62 | 1008.9 |
| 20260505174600 | 68 | 184 | 1.0 | 7.0 | 0.00 | 0.07 | 0.07 | 63 | 1008.8 |
| 20260505174500 | 68 | 165 | 0.0 | 7.0 | 0.00 | 0.07 | 0.07 | 63 | 1008.8 |
| 20260505174401 | 68 | 194 | 2.0 | 7.0 | 0.00 | 0.07 | 0.07 | 63 | 1008.9 |
| 20260505174300 | 68 | 128 | 2.0 | 7.0 | 0.00 | 0.07 | 0.07 | 63 | 1008.8 |
| 20260505174201 | 68 | 223 | 2.0 | 7.0 | 0.00 | 0.07 | 0.07 | 62 | 1008.9 |
| 20260505174101 | 68 | 244 | 2.0 | 7.0 | 0.00 | 0.07 | 0.07 | 63 | 1008.8 |
| 20260505174000 | 68 | 213 | 4.0 | 5.0 | 0.00 | 0.07 | 0.07 | 62 | 1008.8 |
| 20260505173900 | 68 | 228 | 0.0 | 5.0 | 0.00 | 0.07 | 0.07 | 63 | 1008.7 |
| 20260505173801 | 68 | 205 | 0.0 | 5.0 | 0.00 | 0.07 | 0.07 | 63 | 1008.8 |
| 20260505173700 | 68 | 224 | 2.0 | 5.0 | 0.00 | 0.07 | 0.07 | 63 | 1008.8 |
| 20260505173602 | 68 | 155 | 1.0 | 5.0 | 0.00 | 0.07 | 0.07 | 62 | 1008.9 |
| 20260505173500 | 68 | 192 | 2.0 | 5.0 | 0.00 | 0.07 | 0.07 | 63 | 1008.8 |
| 20260505173401 | 67 | 194 | 3.0 | 8.0 | 0.00 | 0.07 | 0.07 | 63 | 1008.9 |
| 20260505173300 | 67 | 221 | 2.0 | 8.0 | 0.00 | 0.07 | 0.07 | 64 | 1008.8 |
| 20260505173200 | 67 | 211 | 2.0 | 10.0 | 0.00 | 0.07 | 0.07 | 63 | 1008.8 |
| 20260505173100 | 67 | 201 | 1.0 | 10.0 | 0.00 | 0.07 | 0.07 | 63 | 1008.9 |
| 20260505173000 | 67 | 226 | 1.0 | 10.0 | 0.00 | 0.07 | 0.07 | 63 | 1009.0 |
| 20260505172901 | 67 | 205 | 3.0 | 10.0 | 0.00 | 0.07 | 0.07 | 63 | 1009.0 |
| 20260505172801 | 67 | 348 | 0.0 | 10.0 | 0.00 | 0.07 | 0.07 | 64 | 1008.9 |
| 20260505172659 | 67 | 176 | 2.0 | 10.0 | 0.00 | 0.07 | 0.07 | 63 | 1009.0 |
| 20260505172600 | 67 | 144 | 1.0 | 10.0 | 0.00 | 0.07 | 0.07 | 63 | 1008.9 |
| 20260505172501 | 67 | 196 | 3.0 | 10.0 | 0.00 | 0.07 | 0.07 | 63 | 1008.9 |
| 20260505172402 | 67 | 160 | 2.0 | 10.0 | 0.00 | 0.07 | 0.07 | 62 | 1008.9 |
| 20260505172301 | 67 | 355 | 5.0 | 11.0 | 0.00 | 0.07 | 0.07 | 63 | 1008.9 |
| 20260505172101 | 67 | 259 | 0.0 | 11.0 | 0.00 | 0.07 | 0.07 | 62 | 1009.1 |
| 20260505172002 | 67 | 195 | 5.0 | 11.0 | 0.00 | 0.07 | 0.07 | 62 | 1009.1 |
| 20260505171801 | 67 | 160 | 6.0 | 11.0 | 0.00 | 0.07 | 0.07 | 62 | 1009.2 |
| 20260505171600 | 67 | 188 | 4.0 | 11.0 | 0.00 | 0.07 | 0.07 | 61 | 1009.1 |
| 20260505171500 | 67 | 228 | 8.0 | 11.0 | 0.00 | 0.07 | 0.07 | 62 | 1009.0 |
| 20260505171401 | 67 | 175 | 2.0 | 8.0 | 0.00 | 0.07 | 0.07 | 61 | 1009.1 |
| 20260505171300 | 67 | 198 | 1.0 | 8.0 | 0.00 | 0.07 | 0.07 | 62 | 1009.1 |
| 20260505171101 | 67 | 229 | 3.0 | 8.0 | 0.00 | 0.07 | 0.07 | 62 | 1009.1 |
| 20260505171001 | 67 | 345 | 3.0 | 7.0 | 0.00 | 0.07 | 0.07 | 62 | 1009.1 |
| 20260505170900 | 67 | 229 | 2.0 | 7.0 | 0.00 | 0.07 | 0.07 | 62 | 1009.1 |
| 20260505170800 | 67 | 236 | 1.0 | 8.0 | 0.00 | 0.07 | 0.07 | 63 | 1009.0 |
| 20260505170700 | 67 | 142 | 2.0 | 8.0 | 0.00 | 0.07 | 0.07 | 62 | 1009.1 |
| 20260505170600 | 67 | 205 | 2.0 | 11.0 | 0.00 | 0.07 | 0.07 | 62 | 1009.1 |
| 20260505170503 | 67 | 221 | 4.0 | 11.0 | 0.00 | 0.07 | 0.07 | 63 | 1009.1 |
| 20260505170359 | 67 | 81 | 1.0 | 11.0 | 0.00 | 0.07 | 0.07 | 62 | 1009.0 |
| 20260505170301 | 67 | 211 | 3.0 | 11.0 | 0.00 | 0.07 | 0.07 | 63 | 1009.1 |
| 20260505170200 | 67 | 250 | 0.0 | 11.0 | 0.00 | 0.07 | 0.07 | 62 | 1009.0 |
| 20260505170101 | 67 | 184 | 2.0 | 11.0 | 0.00 | 0.07 | 0.07 | 62 | 1009.0 |
| 20260505170003 | 67 | 160 | 4.0 | 11.0 | 0.00 | 0.07 | 0.07 | 62 | 1009.0 |
| 20260505165800 | 67 | 229 | 1.0 | 11.0 | 0.00 | 0.07 | 0.07 | 63 | 1009.0 |
| 20260505165701 | 67 | 221 | 5.0 | 10.0 | 0.00 | 0.07 | 0.07 | 63 | 1009.0 |
| 20260505165600 | 67 | 163 | 2.0 | 10.0 | 0.00 | 0.07 | 0.07 | 62 | 1009.0 |
| 20260505165501 | 67 | 208 | 4.0 | 10.0 | 0.00 | 0.07 | 0.07 | 62 | 1008.9 |
| 20260505165201 | 67 | 242 | 0.0 | 9.0 | 0.00 | 0.07 | 0.07 | 63 | 1009.1 |
| 20260505165101 | 66 | 177 | 2.0 | 9.0 | 0.00 | 0.07 | 0.07 | 62 | 1009.0 |
| 20260505165000 | 66 | 223 | 4.0 | 9.0 | 0.00 | 0.07 | 0.07 | 61 | 1009.0 |
| 20260505164901 | 66 | 98 | 3.0 | 9.0 | 0.00 | 0.07 | 0.07 | 62 | 1009.0 |
| 20260505164801 | 67 | 141 | 3.0 | 9.0 | 0.00 | 0.07 | 0.07 | 62 | 1009.0 |
| 20260505164702 | 67 | 255 | 8.0 | 9.0 | 0.00 | 0.07 | 0.07 | 62 | 1009.1 |
| 20260505164601 | 67 | 221 | 3.0 | 9.0 | 0.00 | 0.07 | 0.07 | 62 | 1009.1 |
| 20260505164500 | 67 | 186 | 6.0 | 9.0 | 0.00 | 0.07 | 0.07 | 62 | 1009.0 |
| 20260505164401 | 67 | 182 | 3.0 | 9.0 | 0.00 | 0.07 | 0.07 | 62 | 1009.0 |
| 20260505164300 | 67 | 150 | 9.0 | 9.0 | 0.00 | 0.07 | 0.07 | 62 | 1009.1 |
| 20260505164200 | 67 | 173 | 5.0 | 5.0 | 0.00 | 0.07 | 0.07 | 63 | 1009.0 |
| 20260505164100 | 67 | 202 | 3.0 | 5.0 | 0.00 | 0.07 | 0.07 | 63 | 1009.1 |
| 20260505164001 | 67 | 217 | 1.0 | 5.0 | 0.00 | 0.07 | 0.07 | 62 | 1009.1 |
| 20260505163800 | 66 | 263 | 0.0 | 6.0 | 0.00 | 0.07 | 0.07 | 63 | 1009.0 |
| 20260505163600 | 66 | 115 | 1.0 | 6.0 | 0.00 | 0.07 | 0.07 | 62 | 1009.0 |
| 20260505163501 | 66 | 202 | 1.0 | 6.0 | 0.00 | 0.07 | 0.07 | 62 | 1009.0 |
| 20260505163301 | 66 | 192 | 3.0 | 8.0 | 0.00 | 0.07 | 0.07 | 62 | 1008.9 |
| 20260505163204 | 66 | 207 | 1.0 | 8.0 | 0.00 | 0.07 | 0.07 | 62 | 1008.9 |
| 20260505163100 | 66 | 248 | 4.0 | 8.0 | 0.00 | 0.07 | 0.07 | 62 | 1008.9 |
| 20260505162901 | 66 | 222 | 5.0 | 8.0 | 0.00 | 0.07 | 0.07 | 62 | 1009.0 |
| 20260505162802 | 66 | 186 | 3.0 | 8.0 | 0.00 | 0.07 | 0.07 | 62 | 1008.9 |
| 20260505162701 | 66 | 183 | 3.0 | 8.0 | 0.00 | 0.07 | 0.07 | 61 | 1009.0 |
| 20260505162600 | 66 | 140 | 3.0 | 8.0 | 0.00 | 0.07 | 0.07 | 61 | 1009.0 |
| 20260505162459 | 66 | 196 | 6.0 | 8.0 | 0.00 | 0.07 | 0.07 | 61 | 1009.0 |
| 20260505162401 | 66 | 228 | 1.0 | 7.0 | 0.00 | 0.07 | 0.07 | 61 | 1009.0 |
| 20260505162307 | 66 | 269 | 1.0 | 7.0 | 0.00 | 0.07 | 0.07 | 62 | 1009.0 |
| 20260505162200 | 66 | 171 | 8.0 | 8.0 | 0.00 | 0.07 | 0.07 | 62 | 1009.1 |
| 20260505162000 | 66 | 180 | 1.0 | 8.0 | 0.00 | 0.07 | 0.07 | 62 | 1009.1 |
| 20260505161901 | 66 | 302 | 0.0 | 8.0 | 0.00 | 0.07 | 0.07 | 62 | 1009.1 |
| 20260505161800 | 66 | 211 | 3.0 | 8.0 | 0.00 | 0.07 | 0.07 | 62 | 1009.1 |
| 20260505161659 | 66 | 259 | 0.0 | 8.0 | 0.00 | 0.07 | 0.07 | 62 | 1009.1 |
| 20260505161600 | 66 | 184 | 5.0 | 8.0 | 0.00 | 0.07 | 0.07 | 62 | 1009.1 |
| 20260505161504 | 66 | 168 | 4.0 | 8.0 | 0.00 | 0.07 | 0.07 | 63 | 1009.0 |
| 20260505161401 | 66 | 224 | 1.0 | 8.0 | 0.00 | 0.07 | 0.07 | 62 | 1009.0 |
| 20260505161302 | 66 | 269 | 0.0 | 8.0 | 0.00 | 0.07 | 0.07 | 62 | 1009.0 |
| 20260505161200 | 66 | 259 | 3.0 | 8.0 | 0.00 | 0.07 | 0.07 | 63 | 1009.0 |
| 20260505161102 | 66 | 341 | 0.0 | 7.0 | 0.00 | 0.07 | 0.07 | 62 | 1009.0 |
| 20260505161003 | 66 | 178 | 0.0 | 7.0 | 0.00 | 0.07 | 0.07 | 62 | 1009.1 |
| 20260505160903 | 66 | 238 | 3.0 | 7.0 | 0.00 | 0.07 | 0.07 | 62 | 1009.0 |
| 20260505160759 | 66 | 213 | 2.0 | 7.0 | 0.00 | 0.07 | 0.07 | 62 | 1009.1 |
| 20260505160700 | 66 | 113 | 1.0 | 6.0 | 0.00 | 0.07 | 0.07 | 62 | 1009.0 |
| 20260505160600 | 66 | 199 | 5.0 | 6.0 | 0.00 | 0.07 | 0.07 | 63 | 1009.1 |
| 20260505160503 | 66 | 202 | 0.0 | 6.0 | 0.00 | 0.07 | 0.07 | 62 | 1009.1 |
| 20260505160400 | 66 | 224 | 1.0 | 6.0 | 0.00 | 0.07 | 0.07 | 63 | 1009.1 |
| 20260505160301 | 66 | 216 | 1.0 | 6.0 | 0.00 | 0.07 | 0.07 | 62 | 1009.0 |
| 20260505160200 | 66 | 221 | 3.0 | 6.0 | 0.00 | 0.07 | 0.07 | 61 | 1009.1 |
| 20260505153300 | 66 | 146 | 0.0 | 9.0 | 0.00 | 0.07 | 0.07 | 65 | 1009.0 |
| 20260505153201 | 66 | 155 | 0.0 | 9.0 | 0.00 | 0.07 | 0.07 | 64 | 1008.9 |
| 20260505153101 | 66 | 226 | 5.0 | 10.0 | 0.00 | 0.07 | 0.07 | 64 | 1008.9 |
| 20260505153000 | 66 | 173 | 2.0 | 10.0 | 0.00 | 0.07 | 0.07 | 63 | 1008.9 |
| 20260505152901 | 66 | 165 | 5.0 | 10.0 | 0.00 | 0.07 | 0.07 | 63 | 1008.9 |
| 20260505152801 | 66 | 128 | 9.0 | 10.0 | 0.00 | 0.07 | 0.07 | 64 | 1009.0 |
| 20260505152700 | 66 | 201 | 1.0 | 10.0 | 0.00 | 0.07 | 0.07 | 64 | 1008.9 |
| 20260505152600 | 66 | 125 | 3.0 | 10.0 | 0.00 | 0.07 | 0.07 | 65 | 1008.9 |
| 20260505152500 | 66 | 142 | 1.0 | 10.0 | 0.00 | 0.07 | 0.07 | 64 | 1008.9 |
| 20260505152401 | 66 | 154 | 2.0 | 10.0 | 0.00 | 0.07 | 0.07 | 64 | 1008.8 |
| 20260505152159 | 66 | 121 | 5.0 | 10.0 | 0.00 | 0.07 | 0.07 | 64 | 1008.8 |
| 20260505152100 | 66 | 191 | 1.0 | 7.0 | 0.00 | 0.07 | 0.07 | 65 | 1008.9 |
| 20260505152000 | 66 | 217 | 2.0 | 7.0 | 0.00 | 0.07 | 0.07 | 64 | 1008.7 |
| 20260505151801 | 66 | 160 | 4.0 | 7.0 | 0.00 | 0.07 | 0.07 | 65 | 1008.7 |
| 20260505151500 | 66 | 156 | 2.0 | 6.0 | 0.00 | 0.07 | 0.07 | 65 | 1008.7 |
| 20260505151401 | 66 | 204 | 0.0 | 6.0 | 0.00 | 0.07 | 0.07 | 65 | 1008.7 |
| 20260505151301 | 66 | 163 | 2.0 | 6.0 | 0.00 | 0.07 | 0.07 | 65 | 1008.6 |
| 20260505151200 | 66 | 138 | 2.0 | 6.0 | 0.00 | 0.07 | 0.07 | 65 | 1008.7 |
| 20260505150900 | 66 | 124 | 0.0 | 5.0 | 0.00 | 0.07 | 0.07 | 66 | 1008.8 |
| 20260505150801 | 66 | 121 | 1.0 | 5.0 | 0.00 | 0.07 | 0.07 | 66 | 1008.8 |
| 20260505150601 | 66 | 173 | 0.0 | 8.0 | 0.00 | 0.07 | 0.07 | 66 | 1008.8 |
| 20260505150502 | 66 | 125 | 1.0 | 8.0 | 0.00 | 0.07 | 0.07 | 66 | 1008.8 |
| 20260505150359 | 66 | 169 | 2.0 | 8.0 | 0.00 | 0.07 | 0.07 | 66 | 1008.7 |
| 20260505150302 | 66 | 167 | 0.0 | 8.0 | 0.00 | 0.07 | 0.07 | 65 | 1008.7 |
| 20260505150159 | 66 | 185 | 4.0 | 8.0 | 0.00 | 0.07 | 0.07 | 65 | 1008.7 |
| 20260505140601 | 63 | 207 | 1.0 | 4.0 | 0.00 | 0.07 | 0.07 | 73 | 1008.4 |
| 20260505140501 | 63 | 156 | 0.0 | 4.0 | 0.00 | 0.07 | 0.07 | 74 | 1008.3 |
| 20260505140400 | 63 | 91 | 3.0 | 4.0 | 0.00 | 0.07 | 0.07 | 74 | 1008.4 |
| 20260505140302 | 63 | 217 | 2.0 | 4.0 | 0.00 | 0.07 | 0.07 | 74 | 1008.3 |
| 20260505140201 | 63 | 169 | 2.0 | 4.0 | 0.00 | 0.07 | 0.07 | 75 | 1008.3 |
| 20260505130300 | 59 | 176 | 2.0 | 7.0 | 0.00 | 0.07 | 0.07 | 84 | 1008.3 |
| 20260505125002 | 58 | 137 | 0.0 | 0.0 | 0.00 | 0.07 | 0.07 | 86 | 1008.4 |
| 20260505124901 | 58 | 141 | 0.0 | 0.0 | 0.00 | 0.07 | 0.07 | 87 | 1008.4 |
| 20260505124800 | 58 | 141 | 0.0 | 0.0 | 0.00 | 0.07 | 0.07 | 86 | 1008.5 |
| 20260505124659 | 58 | 141 | 0.0 | 0.0 | 0.00 | 0.07 | 0.07 | 86 | 1008.5 |
| 20260505124601 | 58 | 142 | 0.0 | 0.0 | 0.00 | 0.07 | 0.07 | 87 | 1008.5 |
| 20260505124503 | 58 | 156 | 0.0 | 0.0 | 0.00 | 0.07 | 0.07 | 87 | 1008.4 |
| 20260505124400 | 58 | 157 | 0.0 | 0.0 | 0.00 | 0.07 | 0.07 | 87 | 1008.4 |
| 20260505124301 | 58 | 167 | 0.0 | 0.0 | 0.00 | 0.07 | 0.07 | 87 | 1008.4 |
| 20260505124100 | 58 | 157 | 0.0 | 0.0 | 0.00 | 0.07 | 0.07 | 88 | 1008.5 |
| 20260505124000 | 58 | 157 | 0.0 | 0.0 | 0.00 | 0.07 | 0.07 | 88 | 1008.7 |
| 20260505123802 | 58 | 157 | 0.0 | 0.0 | 0.00 | 0.07 | 0.07 | 88 | 1008.8 |
| 20260505123701 | 58 | 157 | 0.0 | 0.0 | 0.00 | 0.07 | 0.07 | 88 | 1008.8 |
| 20260505123600 | 58 | 157 | 0.0 | 0.0 | 0.00 | 0.07 | 0.07 | 88 | 1008.8 |
| 20260505123459 | 58 | 157 | 0.0 | 0.0 | 0.00 | 0.07 | 0.07 | 88 | 1008.8 |
| 20260505123359 | 58 | 157 | 0.0 | 0.0 | 0.00 | 0.07 | 0.07 | 88 | 1008.7 |
| 20260505123201 | 58 | 212 | 0.0 | 0.0 | 0.00 | 0.07 | 0.07 | 88 | 1009.0 |
| 20260505122900 | 58 | 200 | 0.0 | 3.0 | 0.00 | 0.07 | 0.07 | 88 | 1009.0 |
| 20260505122800 | 58 | 220 | 0.0 | 5.0 | 0.00 | 0.07 | 0.07 | 88 | 1009.0 |
| 20260505122600 | 58 | 196 | 0.0 | 5.0 | 0.00 | 0.07 | 0.07 | 88 | 1008.9 |
| 20260505122500 | 58 | 213 | 0.0 | 5.0 | 0.00 | 0.07 | 0.07 | 88 | 1009.0 |
| 20260505122400 | 58 | 238 | 0.0 | 5.0 | 0.01 | 0.07 | 0.07 | 88 | 1009.0 |
| 20260505122202 | 57 | 203 | 0.0 | 5.0 | 0.01 | 0.07 | 0.07 | 88 | 1009.1 |
| 20260505122059 | 57 | 203 | 0.0 | 5.0 | 0.01 | 0.07 | 0.07 | 88 | 1009.2 |
| 20260505122000 | 58 | 208 | 2.0 | 5.0 | 0.01 | 0.07 | 0.07 | 88 | 1009.2 |
| 20260505121900 | 58 | 233 | 2.0 | 5.0 | 0.01 | 0.07 | 0.07 | 88 | 1009.0 |
| 20260505121701 | 57 | 199 | 0.0 | 3.0 | 0.01 | 0.07 | 0.07 | 88 | 1009.0 |
| 20260505121401 | 57 | 238 | 0.0 | 2.0 | 0.01 | 0.07 | 0.07 | 89 | 1009.0 |
| 20260505121000 | 57 | 214 | 0.0 | 2.0 | 0.01 | 0.07 | 0.07 | 89 | 1009.2 |
| 20260505120801 | 57 | 244 | 1.0 | 2.0 | 0.01 | 0.07 | 0.07 | 89 | 1009.1 |
| 20260505120700 | 57 | 205 | 0.0 | 2.0 | 0.01 | 0.07 | 0.07 | 89 | 1009.2 |
| 20260505120602 | 57 | 205 | 1.0 | 2.0 | 0.01 | 0.07 | 0.07 | 89 | 1009.1 |
| 20260505120500 | 57 | 282 | 1.0 | 2.0 | 0.01 | 0.07 | 0.07 | 89 | 1009.2 |
| 20260505120401 | 57 | 191 | 0.0 | 2.0 | 0.01 | 0.07 | 0.07 | 89 | 1009.2 |
| 20260505120300 | 57 | 178 | 0.0 | 2.0 | 0.01 | 0.07 | 0.07 | 89 | 1009.1 |
| 20260505120159 | 57 | 174 | 0.0 | 2.0 | 0.01 | 0.07 | 0.07 | 89 | 1009.0 |
| 20260505120059 | 57 | 174 | 1.0 | 4.0 | 0.01 | 0.07 | 0.07 | 89 | 1009.1 |
| 20260505115959 | 57 | 203 | 0.0 | 4.0 | 0.01 | 0.07 | 0.07 | 89 | 1009.1 |
| 20260505115900 | 57 | 170 | 1.0 | 4.0 | 0.01 | 0.07 | 0.07 | 89 | 1009.1 |
| 20260505115759 | 57 | 223 | 1.0 | 4.0 | 0.01 | 0.07 | 0.07 | 89 | 1009.1 |
| 20260505115659 | 57 | 204 | 0.0 | 4.0 | 0.01 | 0.07 | 0.07 | 89 | 1009.1 |
| 20260505115600 | 57 | 204 | 1.0 | 4.0 | 0.01 | 0.07 | 0.07 | 89 | 1009.1 |
| 20260505115459 | 57 | 219 | 1.0 | 4.0 | 0.01 | 0.07 | 0.07 | 89 | 1009.1 |
| 20260505115401 | 57 | 211 | 0.0 | 4.0 | 0.01 | 0.07 | 0.07 | 89 | 1009.1 |
| 20260505115259 | 57 | 205 | 3.0 | 4.0 | 0.01 | 0.07 | 0.07 | 89 | 1009.1 |
| 20260505115059 | 57 | 208 | 0.0 | 4.0 | 0.01 | 0.07 | 0.07 | 89 | 1009.1 |
| 20260505114959 | 57 | 209 | 0.0 | 4.0 | 0.01 | 0.07 | 0.07 | 89 | 1009.0 |
| 20260505114859 | 57 | 206 | 1.0 | 4.0 | 0.01 | 0.07 | 0.07 | 88 | 1009.0 |
| 20260505114759 | 57 | 216 | 1.0 | 4.0 | 0.01 | 0.07 | 0.07 | 88 | 1009.0 |
| 20260505114659 | 57 | 167 | 3.0 | 4.0 | 0.01 | 0.07 | 0.07 | 88 | 1009.0 |
| 20260505114600 | 57 | 215 | 2.0 | 4.0 | 0.01 | 0.07 | 0.07 | 89 | 1008.9 |
| 20260505114359 | 57 | 182 | 1.0 | 4.0 | 0.01 | 0.07 | 0.07 | 88 | 1008.9 |
| 20260505114300 | 57 | 202 | 1.0 | 4.0 | 0.01 | 0.07 | 0.07 | 88 | 1008.9 |
| 20260505114159 | 57 | 190 | 2.0 | 4.0 | 0.01 | 0.07 | 0.07 | 89 | 1008.8 |
| 20260505114059 | 57 | 198 | 2.0 | 3.0 | 0.01 | 0.07 | 0.07 | 88 | 1008.8 |
| 20260505113959 | 57 | 180 | 1.0 | 4.0 | 0.01 | 0.07 | 0.07 | 88 | 1008.8 |
| 20260505113759 | 57 | 220 | 2.0 | 4.0 | 0.01 | 0.07 | 0.07 | 88 | 1008.7 |
| 20260505113658 | 57 | 223 | 0.0 | 4.0 | 0.01 | 0.07 | 0.07 | 88 | 1008.7 |
| 20260505113600 | 57 | 213 | 2.0 | 4.0 | 0.01 | 0.07 | 0.07 | 88 | 1008.7 |
| 20260505113500 | 57 | 209 | 1.0 | 4.0 | 0.01 | 0.07 | 0.07 | 88 | 1008.7 |
| 20260505113300 | 57 | 250 | 1.0 | 4.0 | 0.01 | 0.07 | 0.07 | 88 | 1008.7 |
| 20260505113159 | 57 | 190 | 4.0 | 4.0 | 0.01 | 0.07 | 0.07 | 88 | 1008.9 |
| 20260505113059 | 57 | 166 | 1.0 | 3.0 | 0.01 | 0.07 | 0.07 | 88 | 1008.9 |
| 20260505112959 | 57 | 211 | 0.0 | 3.0 | 0.01 | 0.07 | 0.07 | 88 | 1008.8 |
| 20260505112858 | 57 | 190 | 1.0 | 3.0 | 0.01 | 0.07 | 0.07 | 89 | 1008.8 |
| 20260505112759 | 57 | 234 | 0.0 | 2.0 | 0.01 | 0.07 | 0.07 | 89 | 1008.7 |
| 20260505112659 | 57 | 202 | 0.0 | 2.0 | 0.02 | 0.07 | 0.07 | 89 | 1008.6 |
| 20260505112559 | 57 | 200 | 0.0 | 2.0 | 0.02 | 0.07 | 0.07 | 89 | 1008.5 |
| 20260505112500 | 57 | 272 | 0.0 | 2.0 | 0.02 | 0.07 | 0.07 | 89 | 1008.5 |
| 20260505112401 | 57 | 264 | 0.0 | 2.0 | 0.01 | 0.06 | 0.06 | 89 | 1008.4 |
| 20260505112158 | 57 | 157 | 1.0 | 2.0 | 0.01 | 0.06 | 0.06 | 88 | 1008.4 |
| 20260505112100 | 57 | 182 | 1.0 | 3.0 | 0.01 | 0.06 | 0.06 | 88 | 1008.3 |
| 20260505111959 | 57 | 166 | 0.0 | 3.0 | 0.01 | 0.06 | 0.06 | 88 | 1008.3 |
| 20260505111759 | 57 | 136 | 0.0 | 3.0 | 0.01 | 0.06 | 0.06 | 88 | 1008.3 |
| 20260505111501 | 57 | 146 | 1.0 | 3.0 | 0.01 | 0.06 | 0.06 | 88 | 1008.2 |
| 20260505111359 | 57 | 159 | 0.0 | 3.0 | 0.01 | 0.06 | 0.06 | 88 | 1008.2 |
| 20260505111159 | 57 | 155 | 1.0 | 1.0 | 0.01 | 0.06 | 0.06 | 88 | 1008.1 |
| 20260505111100 | 57 | 126 | 0.0 | 1.0 | 0.02 | 0.06 | 0.06 | 88 | 1008.2 |
| 20260505111000 | 57 | 159 | 0.0 | 1.0 | 0.02 | 0.06 | 0.06 | 88 | 1008.2 |
| 20260505110759 | 57 | 160 | 0.0 | 1.0 | 0.02 | 0.06 | 0.06 | 88 | 1008.2 |
| 20260505110700 | 57 | 160 | 0.0 | 1.0 | 0.02 | 0.06 | 0.06 | 88 | 1008.2 |
| 20260505110559 | 57 | 160 | 0.0 | 1.0 | 0.02 | 0.06 | 0.06 | 88 | 1008.2 |
| 20260505110459 | 57 | 160 | 0.0 | 1.0 | 0.02 | 0.06 | 0.06 | 88 | 1008.3 |
| 20260505110358 | 57 | 160 | 0.0 | 1.0 | 0.02 | 0.06 | 0.06 | 88 | 1008.3 |
| 20260505110259 | 57 | 148 | 0.0 | 0.0 | 0.03 | 0.06 | 0.06 | 88 | 1008.3 |
| 20260505110201 | 57 | 148 | 0.0 | 0.0 | 0.03 | 0.06 | 0.06 | 88 | 1008.4 |
| 20260505102158 | 58 | 86 | 0.0 | 1.0 | 0.05 | 0.05 | 0.05 | 84 | 1008.8 |
| 20260505102100 | 58 | 86 | 0.0 | 2.0 | 0.05 | 0.05 | 0.05 | 84 | 1008.8 |
| 20260505102001 | 58 | 86 | 0.0 | 2.0 | 0.05 | 0.05 | 0.05 | 84 | 1008.9 |
| 20260505101900 | 58 | 86 | 0.0 | 2.0 | 0.05 | 0.05 | 0.05 | 84 | 1008.9 |
| 20260505101700 | 58 | 102 | 0.0 | 2.0 | 0.05 | 0.05 | 0.05 | 84 | 1009.0 |
| 20260505101559 | 58 | 265 | 0.0 | 2.0 | 0.05 | 0.05 | 0.05 | 83 | 1009.0 |
| 20260505101459 | 58 | 348 | 0.0 | 2.0 | 0.05 | 0.05 | 0.05 | 83 | 1009.1 |
| 20260505101400 | 58 | 348 | 0.0 | 2.0 | 0.05 | 0.05 | 0.05 | 83 | 1009.1 |
| 20260505101300 | 58 | 338 | 0.0 | 2.0 | 0.05 | 0.05 | 0.05 | 83 | 1009.1 |
| 20260505101200 | 58 | 61 | 0.0 | 2.0 | 0.05 | 0.05 | 0.05 | 83 | 1009.1 |
| 20260505100959 | 59 | 329 | 0.0 | 2.0 | 0.04 | 0.04 | 0.04 | 82 | 1009.1 |
| 20260505100859 | 59 | 322 | 0.0 | 2.0 | 0.04 | 0.04 | 0.04 | 82 | 1009.3 |
| 20260505100759 | 59 | 292 | 0.0 | 2.0 | 0.04 | 0.04 | 0.04 | 82 | 1009.3 |
| 20260505100658 | 59 | 291 | 0.0 | 2.0 | 0.04 | 0.04 | 0.04 | 81 | 1009.4 |
| 20260505100601 | 59 | 309 | 0.0 | 2.0 | 0.04 | 0.04 | 0.04 | 81 | 1009.3 |
| 20260505100500 | 59 | 13 | 1.0 | 2.0 | 0.04 | 0.04 | 0.04 | 81 | 1009.3 |
| 20260505100359 | 59 | 342 | 1.0 | 2.0 | 0.04 | 0.04 | 0.04 | 80 | 1009.3 |
| 20260505100300 | 59 | 340 | 0.0 | 2.0 | 0.03 | 0.03 | 0.03 | 80 | 1009.3 |
| 20260505100201 | 59 | 346 | 1.0 | 2.0 | 0.03 | 0.03 | 0.03 | 80 | 1009.3 |
| 20260505100059 | 59 | 324 | 0.0 | 2.0 | 0.03 | 0.03 | 0.03 | 80 | 1009.4 |
| 20260505095759 | 60 | 23 | 1.0 | 4.0 | 0.02 | 0.02 | 0.02 | 79 | 1009.4 |
| 20260505095702 | 60 | 36 | 0.0 | 4.0 | 0.02 | 0.02 | 0.02 | 78 | 1009.4 |
| 20260505095600 | 60 | 36 | 0.0 | 4.0 | 0.02 | 0.02 | 0.02 | 78 | 1009.4 |
| 20260505095459 | 60 | 252 | 1.0 | 4.0 | 0.02 | 0.02 | 0.02 | 78 | 1009.3 |
| 20260505095400 | 60 | 221 | 2.0 | 4.0 | 0.02 | 0.02 | 0.02 | 77 | 1009.4 |
| 20260505095300 | 61 | 98 | 0.0 | 4.0 | 0.02 | 0.02 | 0.02 | 77 | 1009.3 |
| 20260505095201 | 61 | 153 | 1.0 | 4.0 | 0.01 | 0.01 | 0.01 | 77 | 1009.2 |
| 20260505095059 | 61 | 42 | 1.0 | 4.0 | 0.01 | 0.01 | 0.01 | 77 | 1009.2 |
| 20260505095000 | 61 | 282 | 0.0 | 4.0 | 0.01 | 0.01 | 0.01 | 76 | 1009.1 |
| 20260505094900 | 61 | 9 | 0.0 | 4.0 | 0.01 | 0.01 | 0.01 | 76 | 1009.2 |
| 20260505094800 | 62 | 331 | 0.0 | 5.0 | 0.01 | 0.01 | 0.01 | 75 | 1009.2 |
| 20260505094602 | 62 | 5 | 1.0 | 5.0 | 0.01 | 0.01 | 0.01 | 75 | 1009.2 |
| 20260505094400 | 62 | 342 | 2.0 | 5.0 | 0.00 | 0.00 | 0.00 | 74 | 1009.3 |
| 20260505094259 | 62 | 344 | 0.0 | 5.0 | 0.00 | 0.00 | 0.00 | 74 | 1009.2 |
| 20260505094203 | 63 | 280 | 0.0 | 5.0 | 0.00 | 0.00 | 0.00 | 72 | 1009.1 |
| 20260505094100 | 63 | 335 | 0.0 | 5.0 | 0.00 | 0.00 | 0.00 | 71 | 1009.1 |
| 20260505093959 | 63 | 17 | 0.0 | 7.0 | 0.00 | 0.00 | 0.00 | 70 | 1009.0 |
| 20260505093902 | 63 | 59 | 2.0 | 7.0 | 0.00 | 0.00 | 0.00 | 69 | 1009.0 |
| 20260505093800 | 63 | 309 | 1.0 | 7.0 | 0.00 | 0.00 | 0.00 | 68 | 1008.9 |
| 20260505093700 | 63 | 15 | 1.0 | 7.0 | 0.00 | 0.00 | 0.00 | 68 | 1008.8 |
| 20260505093602 | 63 | 223 | 0.0 | 7.0 | 0.00 | 0.00 | 0.00 | 67 | 1008.7 |
| 20260505093501 | 63 | 215 | 2.0 | 7.0 | 0.00 | 0.00 | 0.00 | 66 | 1008.6 |
| 20260505093201 | 63 | 212 | 2.0 | 7.0 | 0.00 | 0.00 | 0.00 | 65 | 1008.3 |
| 20260505093059 | 64 | 10 | 0.0 | 5.0 | 0.00 | 0.00 | 0.00 | 65 | 1008.2 |
| 20260505093000 | 64 | 196 | 0.0 | 7.0 | 0.00 | 0.00 | 0.00 | 65 | 1008.2 |
| 20260505092900 | 64 | 168 | 0.0 | 7.0 | 0.00 | 0.00 | 0.00 | 64 | 1008.2 |
| 20260505092801 | 64 | 224 | 0.0 | 8.0 | 0.00 | 0.00 | 0.00 | 64 | 1008.1 |
| 20260505092700 | 64 | 309 | 3.0 | 8.0 | 0.00 | 0.00 | 0.00 | 64 | 1008.1 |
| 20260505092600 | 64 | 256 | 0.0 | 8.0 | 0.00 | 0.00 | 0.00 | 64 | 1008.1 |
| 20260505092400 | 64 | 234 | 1.0 | 8.0 | 0.00 | 0.00 | 0.00 | 64 | 1008.1 |
| 20260505092258 | 64 | 189 | 3.0 | 8.0 | 0.00 | 0.00 | 0.00 | 63 | 1008.1 |
| 20260505092200 | 64 | 286 | 1.0 | 8.0 | 0.00 | 0.00 | 0.00 | 63 | 1008.1 |
| 20260505092100 | 64 | 200 | 2.0 | 8.0 | 0.00 | 0.00 | 0.00 | 64 | 1008.0 |
| 20260505092000 | 64 | 281 | 1.0 | 8.0 | 0.00 | 0.00 | 0.00 | 64 | 1007.9 |
| 20260505091859 | 64 | 196 | 2.0 | 9.0 | 0.00 | 0.00 | 0.00 | 63 | 1007.9 |
| 20260505091800 | 64 | 161 | 4.0 | 9.0 | 0.00 | 0.00 | 0.00 | 63 | 1008.0 |
| 20260505091659 | 64 | 107 | 2.0 | 10.0 | 0.00 | 0.00 | 0.00 | 63 | 1007.9 |
| 20260505091559 | 64 | 192 | 1.0 | 10.0 | 0.00 | 0.00 | 0.00 | 63 | 1007.9 |
| 20260505091300 | 64 | 194 | 3.0 | 10.0 | 0.00 | 0.00 | 0.00 | 64 | 1007.9 |
| 20260505091159 | 64 | 202 | 0.0 | 10.0 | 0.00 | 0.00 | 0.00 | 63 | 1007.9 |
| 20260505091100 | 64 | 219 | 1.0 | 10.0 | 0.00 | 0.00 | 0.00 | 63 | 1007.9 |
| 20260505091001 | 64 | 170 | 1.0 | 10.0 | 0.00 | 0.00 | 0.00 | 63 | 1007.9 |
| 20260505090902 | 64 | 182 | 2.0 | 10.0 | 0.00 | 0.00 | 0.00 | 63 | 1007.8 |
| 20260505090703 | 64 | 148 | 3.0 | 8.0 | 0.00 | 0.00 | 0.00 | 63 | 1007.8 |
| 20260505090600 | 64 | 231 | 1.0 | 8.0 | 0.00 | 0.00 | 0.00 | 63 | 1007.7 |
| 20260505090500 | 64 | 309 | 3.0 | 8.0 | 0.00 | 0.00 | 0.00 | 63 | 1007.8 |
| 20260505090400 | 64 | 302 | 1.0 | 8.0 | 0.00 | 0.00 | 0.00 | 63 | 1007.6 |
| 20260505090259 | 64 | 130 | 0.0 | 8.0 | 0.00 | 0.00 | 0.00 | 63 | 1007.6 |
| 20260505090159 | 64 | 207 | 0.0 | 8.0 | 0.00 | 0.00 | 0.00 | 63 | 1007.6 |
| 20260505090100 | 64 | 193 | 0.0 | 8.0 | 0.00 | 0.00 | 0.00 | 63 | 1007.6 |
| 20260505085959 | 64 | 225 | 0.0 | 8.0 | 0.00 | 0.00 | 0.00 | 63 | 1007.4 |
| 20260505085859 | 64 | 217 | 3.0 | 8.0 | 0.00 | 0.00 | 0.00 | 63 | 1007.5 |
| 20260505085801 | 64 | 337 | 0.0 | 7.0 | 0.00 | 0.00 | 0.00 | 63 | 1007.5 |
| 20260505085559 | 64 | 234 | 0.0 | 7.0 | 0.00 | 0.00 | 0.00 | 63 | 1007.6 |
| 20260505085501 | 64 | 200 | 3.0 | 6.0 | 0.00 | 0.00 | 0.00 | 63 | 1007.4 |
| 20260505085400 | 64 | 209 | 3.0 | 6.0 | 0.00 | 0.00 | 0.00 | 63 | 1007.4 |
| 20260505085159 | 64 | 190 | 0.0 | 6.0 | 0.00 | 0.00 | 0.00 | 63 | 1007.4 |
| 20260505084959 | 64 | 289 | 1.0 | 6.0 | 0.00 | 0.00 | 0.00 | 63 | 1007.3 |
| 20260505084858 | 64 | 238 | 1.0 | 6.0 | 0.00 | 0.00 | 0.00 | 63 | 1007.3 |
| 20260505084759 | 64 | 213 | 3.0 | 6.0 | 0.00 | 0.00 | 0.00 | 62 | 1007.2 |
| 20260505084700 | 64 | 150 | 2.0 | 5.0 | 0.00 | 0.00 | 0.00 | 62 | 1007.2 |
| 20260505084459 | 64 | 159 | 0.0 | 4.0 | 0.00 | 0.00 | 0.00 | 63 | 1007.1 |
| 20260505084401 | 64 | 148 | 3.0 | 4.0 | 0.00 | 0.00 | 0.00 | 62 | 1007.2 |
| 20260505084259 | 64 | 194 | 2.0 | 6.0 | 0.00 | 0.00 | 0.00 | 63 | 1007.3 |
| 20260505084100 | 64 | 118 | 3.0 | 7.0 | 0.00 | 0.00 | 0.00 | 62 | 1007.3 |
| 20260505083959 | 64 | 199 | 0.0 | 7.0 | 0.00 | 0.00 | 0.00 | 62 | 1007.2 |
| 20260505083859 | 64 | 222 | 1.0 | 7.0 | 0.00 | 0.00 | 0.00 | 62 | 1007.3 |
| 20260505083801 | 64 | 169 | 2.0 | 7.0 | 0.00 | 0.00 | 0.00 | 62 | 1007.2 |
| 20260505083659 | 64 | 227 | 2.0 | 7.0 | 0.00 | 0.00 | 0.00 | 62 | 1007.2 |
| 20260505083600 | 64 | 155 | 1.0 | 7.0 | 0.00 | 0.00 | 0.00 | 62 | 1007.1 |
| 20260505083459 | 64 | 315 | 0.0 | 7.0 | 0.00 | 0.00 | 0.00 | 62 | 1007.2 |
| 20260505083359 | 64 | 243 | 3.0 | 7.0 | 0.00 | 0.00 | 0.00 | 62 | 1007.2 |
| 20260505083259 | 64 | 302 | 5.0 | 5.0 | 0.00 | 0.00 | 0.00 | 62 | 1007.2 |
| 20260505083159 | 64 | 202 | 2.0 | 5.0 | 0.00 | 0.00 | 0.00 | 62 | 1007.2 |
| 20260505083058 | 64 | 226 | 1.0 | 7.0 | 0.00 | 0.00 | 0.00 | 62 | 1007.2 |
| 20260505082959 | 64 | 215 | 2.0 | 7.0 | 0.00 | 0.00 | 0.00 | 62 | 1007.2 |
| 20260505082900 | 64 | 190 | 2.0 | 7.0 | 0.00 | 0.00 | 0.00 | 62 | 1007.1 |
| 20260505082759 | 64 | 186 | 3.0 | 7.0 | 0.00 | 0.00 | 0.00 | 62 | 1007.2 |
| 20260505082658 | 64 | 5 | 2.0 | 7.0 | 0.00 | 0.00 | 0.00 | 62 | 1007.1 |
| 20260505082559 | 64 | 211 | 5.0 | 7.0 | 0.00 | 0.00 | 0.00 | 62 | 1007.1 |
| 20260505082459 | 64 | 217 | 1.0 | 7.0 | 0.00 | 0.00 | 0.00 | 62 | 1007.1 |
| 20260505082400 | 64 | 210 | 1.0 | 8.0 | 0.00 | 0.00 | 0.00 | 62 | 1007.0 |
| 20260505082159 | 64 | 170 | 4.0 | 8.0 | 0.00 | 0.00 | 0.00 | 61 | 1007.0 |
| 20260505082100 | 64 | 196 | 5.0 | 8.0 | 0.00 | 0.00 | 0.00 | 62 | 1007.0 |
| 20260505082000 | 64 | 218 | 2.0 | 8.0 | 0.00 | 0.00 | 0.00 | 61 | 1006.9 |
| 20260505081859 | 64 | 205 | 2.0 | 8.0 | 0.00 | 0.00 | 0.00 | 62 | 1006.9 |
| 20260505081759 | 64 | 223 | 1.0 | 8.0 | 0.00 | 0.00 | 0.00 | 62 | 1006.8 |
| 20260505081659 | 64 | 245 | 1.0 | 8.0 | 0.00 | 0.00 | 0.00 | 62 | 1006.8 |
| 20260505081559 | 64 | 182 | 6.0 | 7.0 | 0.00 | 0.00 | 0.00 | 62 | 1006.8 |
| 20260505081459 | 64 | 208 | 0.0 | 7.0 | 0.00 | 0.00 | 0.00 | 62 | 1006.7 |
| 20260505081401 | 64 | 288 | 0.0 | 7.0 | 0.00 | 0.00 | 0.00 | 61 | 1006.6 |
| 20260505081259 | 64 | 181 | 2.0 | 7.0 | 0.00 | 0.00 | 0.00 | 62 | 1006.7 |
| 20260505081200 | 64 | 193 | 0.0 | 7.0 | 0.00 | 0.00 | 0.00 | 61 | 1006.6 |
| 20260505081100 | 64 | 204 | 4.0 | 7.0 | 0.00 | 0.00 | 0.00 | 62 | 1006.6 |
| 20260505080859 | 64 | 236 | 1.0 | 7.0 | 0.00 | 0.00 | 0.00 | 62 | 1006.5 |
| 20260505080800 | 64 | 192 | 1.0 | 9.0 | 0.00 | 0.00 | 0.00 | 61 | 1006.6 |
| 20260505080701 | 64 | 212 | 2.0 | 9.0 | 0.00 | 0.00 | 0.00 | 61 | 1006.6 |
| 20260505080559 | 64 | 188 | 4.0 | 9.0 | 0.00 | 0.00 | 0.00 | 61 | 1006.6 |
| 20260505080459 | 64 | 219 | 2.0 | 9.0 | 0.00 | 0.00 | 0.00 | 62 | 1006.6 |
| 20260505080358 | 64 | 244 | 1.0 | 9.0 | 0.00 | 0.00 | 0.00 | 61 | 1006.6 |
| 20260505080259 | 64 | 210 | 2.0 | 9.0 | 0.00 | 0.00 | 0.00 | 61 | 1006.6 |
| 20260505080159 | 64 | 196 | 1.0 | 9.0 | 0.00 | 0.00 | 0.00 | 61 | 1006.6 |
| 20260505080003 | 65 | 158 | 5.0 | 9.0 | 0.00 | 0.00 | 0.00 | 61 | 1006.6 |
| 20260505075859 | 64 | 183 | 6.0 | 7.0 | 0.00 | 0.00 | 0.00 | 61 | 1006.6 |
| 20260505075800 | 64 | 204 | 0.0 | 7.0 | 0.00 | 0.00 | 0.00 | 62 | 1006.6 |
| 20260505075659 | 64 | 210 | 2.0 | 7.0 | 0.00 | 0.00 | 0.00 | 62 | 1006.6 |
| 20260505075559 | 65 | 202 | 0.0 | 7.0 | 0.00 | 0.00 | 0.00 | 61 | 1006.6 |
| 20260505075459 | 65 | 225 | 3.0 | 7.0 | 0.00 | 0.00 | 0.00 | 61 | 1006.7 |
| 20260505075401 | 65 | 204 | 5.0 | 7.0 | 0.00 | 0.00 | 0.00 | 61 | 1006.6 |
| 20260505075259 | 65 | 173 | 2.0 | 7.0 | 0.00 | 0.00 | 0.00 | 61 | 1006.6 |
| 20260505075159 | 65 | 86 | 2.0 | 7.0 | 0.00 | 0.00 | 0.00 | 61 | 1006.6 |
| 20260505074959 | 65 | 148 | 0.0 | 7.0 | 0.00 | 0.00 | 0.00 | 61 | 1006.7 |
| 20260505074859 | 65 | 132 | 0.0 | 9.0 | 0.00 | 0.00 | 0.00 | 61 | 1006.7 |
| 20260505074759 | 65 | 217 | 1.0 | 9.0 | 0.00 | 0.00 | 0.00 | 61 | 1006.7 |
| 20260505074701 | 65 | 171 | 2.0 | 9.0 | 0.00 | 0.00 | 0.00 | 61 | 1006.7 |
| 20260505074559 | 65 | 167 | 3.0 | 9.0 | 0.00 | 0.00 | 0.00 | 61 | 1006.7 |
| 20260505074401 | 65 | 227 | 3.0 | 9.0 | 0.00 | 0.00 | 0.00 | 61 | 1006.7 |
| 20260505074259 | 65 | 243 | 0.0 | 9.0 | 0.00 | 0.00 | 0.00 | 60 | 1006.7 |
| 20260505074159 | 65 | 273 | 2.0 | 9.0 | 0.00 | 0.00 | 0.00 | 60 | 1006.6 |
| 20260505074101 | 65 | 277 | 3.0 | 9.0 | 0.00 | 0.00 | 0.00 | 60 | 1006.7 |
| 20260505073959 | 65 | 117 | 0.0 | 9.0 | 0.00 | 0.00 | 0.00 | 61 | 1006.5 |
| 20260505073859 | 65 | 205 | 3.0 | 11.0 | 0.00 | 0.00 | 0.00 | 61 | 1006.6 |
| 20260505073759 | 65 | 207 | 3.0 | 11.0 | 0.00 | 0.00 | 0.00 | 60 | 1006.5 |
| 20260505073659 | 65 | 332 | 4.0 | 11.0 | 0.00 | 0.00 | 0.00 | 60 | 1006.5 |
| 20260505073559 | 65 | 180 | 0.0 | 11.0 | 0.00 | 0.00 | 0.00 | 60 | 1006.4 |
| 20260505073500 | 65 | 211 | 0.0 | 11.0 | 0.00 | 0.00 | 0.00 | 60 | 1006.4 |
| 20260505073259 | 65 | 180 | 3.0 | 11.0 | 0.00 | 0.00 | 0.00 | 60 | 1006.4 |
| 20260505073158 | 65 | 275 | 2.0 | 11.0 | 0.00 | 0.00 | 0.00 | 60 | 1006.4 |
| 20260505073059 | 65 | 181 | 2.0 | 11.0 | 0.00 | 0.00 | 0.00 | 60 | 1006.4 |
| 20260505072959 | 65 | 173 | 3.0 | 9.0 | 0.00 | 0.00 | 0.00 | 60 | 1006.3 |
| 20260505072901 | 65 | 161 | 5.0 | 8.0 | 0.00 | 0.00 | 0.00 | 60 | 1006.4 |
| 20260505072758 | 65 | 210 | 2.0 | 9.0 | 0.00 | 0.00 | 0.00 | 60 | 1006.3 |
| 20260505072658 | 65 | 165 | 1.0 | 9.0 | 0.00 | 0.00 | 0.00 | 60 | 1006.3 |
| 20260505072459 | 65 | 229 | 2.0 | 9.0 | 0.00 | 0.00 | 0.00 | 60 | 1006.2 |
| 20260505072359 | 65 | 193 | 3.0 | 9.0 | 0.00 | 0.00 | 0.00 | 60 | 1006.2 |
| 20260505072259 | 65 | 252 | 5.0 | 9.0 | 0.00 | 0.00 | 0.00 | 60 | 1006.2 |
| 20260505072159 | 65 | 203 | 2.0 | 9.0 | 0.00 | 0.00 | 0.00 | 60 | 1006.3 |
| 20260505072059 | 65 | 183 | 1.0 | 10.0 | 0.00 | 0.00 | 0.00 | 60 | 1006.2 |
| 20260505071958 | 65 | 311 | 2.0 | 10.0 | 0.00 | 0.00 | 0.00 | 59 | 1006.3 |
| 20260505071901 | 65 | 246 | 7.0 | 10.0 | 0.00 | 0.00 | 0.00 | 59 | 1006.1 |
| 20260505071800 | 65 | 140 | 3.0 | 10.0 | 0.00 | 0.00 | 0.00 | 59 | 1006.1 |
| 20260505071559 | 65 | 138 | 4.0 | 10.0 | 0.00 | 0.00 | 0.00 | 60 | 1006.1 |
| 20260505071459 | 65 | 213 | 3.0 | 10.0 | 0.00 | 0.00 | 0.00 | 59 | 1006.1 |
| 20260505071359 | 65 | 186 | 3.0 | 10.0 | 0.00 | 0.00 | 0.00 | 59 | 1006.1 |
| 20260505071259 | 65 | 208 | 1.0 | 10.0 | 0.00 | 0.00 | 0.00 | 59 | 1006.1 |
| 20260505071158 | 65 | 201 | 9.0 | 11.0 | 0.00 | 0.00 | 0.00 | 60 | 1006.1 |
| 20260505071100 | 65 | 284 | 2.0 | 9.0 | 0.00 | 0.00 | 0.00 | 59 | 1006.2 |
| 20260505071000 | 65 | 134 | 1.0 | 9.0 | 0.00 | 0.00 | 0.00 | 59 | 1006.1 |
| 20260505070900 | 66 | 21 | 1.0 | 9.0 | 0.00 | 0.00 | 0.00 | 59 | 1006.2 |
| 20260505070658 | 66 | 222 | 2.0 | 9.0 | 0.00 | 0.00 | 0.00 | 59 | 1006.2 |
| 20260505070559 | 66 | 325 | 2.0 | 9.0 | 0.00 | 0.00 | 0.00 | 59 | 1006.2 |
| 20260505070459 | 66 | 204 | 5.0 | 9.0 | 0.00 | 0.00 | 0.00 | 59 | 1006.3 |
| 20260505070300 | 66 | 213 | 3.0 | 8.0 | 0.00 | 0.00 | 0.00 | 59 | 1006.3 |
| 20260505070158 | 66 | 96 | 0.0 | 9.0 | 0.00 | 0.00 | 0.00 | 59 | 1006.2 |
| 20260505070059 | 66 | 185 | 2.0 | 10.0 | 0.00 | 0.00 | 0.00 | 58 | 1006.4 |
| 20260505070003 | 66 | 298 | 5.0 | 10.0 | 0.00 | 0.00 | 0.00 | 59 | 1006.4 |
| 20260505065858 | 66 | 198 | 3.0 | 10.0 | 0.00 | 0.00 | 0.00 | 59 | 1006.3 |
| 20260505065758 | 66 | 161 | 0.0 | 10.0 | 0.00 | 0.00 | 0.00 | 58 | 1006.3 |
| 20260505065659 | 66 | 194 | 4.0 | 13.0 | 0.00 | 0.00 | 0.00 | 59 | 1006.3 |
| 20260505065600 | 66 | 250 | 0.0 | 13.0 | 0.00 | 0.00 | 0.00 | 59 | 1006.3 |
| 20260505065458 | 66 | 202 | 3.0 | 13.0 | 0.00 | 0.00 | 0.00 | 58 | 1006.3 |
| 20260505065400 | 66 | 170 | 2.0 | 13.0 | 0.00 | 0.00 | 0.00 | 59 | 1006.4 |
| 20260505065159 | 66 | 207 | 10.0 | 13.0 | 0.00 | 0.00 | 0.00 | 58 | 1006.3 |
| 20260505065059 | 66 | 236 | 3.0 | 13.0 | 0.00 | 0.00 | 0.00 | 58 | 1006.3 |
| 20260505065000 | 66 | 209 | 3.0 | 13.0 | 0.00 | 0.00 | 0.00 | 58 | 1006.4 |
| 20260505064901 | 66 | 222 | 2.0 | 13.0 | 0.00 | 0.00 | 0.00 | 58 | 1006.4 |
| 20260505064759 | 66 | 199 | 8.0 | 10.0 | 0.00 | 0.00 | 0.00 | 58 | 1006.4 |
| 20260505064659 | 66 | 69 | 0.0 | 9.0 | 0.00 | 0.00 | 0.00 | 58 | 1006.4 |
| 20260505064559 | 66 | 189 | 4.0 | 9.0 | 0.00 | 0.00 | 0.00 | 58 | 1006.4 |
| 20260505064458 | 66 | 183 | 4.0 | 9.0 | 0.00 | 0.00 | 0.00 | 58 | 1006.3 |
| 20260505064359 | 66 | 161 | 5.0 | 9.0 | 0.00 | 0.00 | 0.00 | 58 | 1006.4 |
| 20260505064159 | 66 | 219 | 3.0 | 9.0 | 0.00 | 0.00 | 0.00 | 59 | 1006.4 |
| 20260505064059 | 66 | 142 | 3.0 | 9.0 | 0.00 | 0.00 | 0.00 | 58 | 1006.4 |
| 20260505063959 | 66 | 197 | 6.0 | 9.0 | 0.00 | 0.00 | 0.00 | 58 | 1006.5 |
| 20260505063859 | 66 | 192 | 3.0 | 10.0 | 0.00 | 0.00 | 0.00 | 59 | 1006.3 |
| 20260505063758 | 66 | 167 | 1.0 | 10.0 | 0.00 | 0.00 | 0.00 | 58 | 1006.4 |
| 20260505063659 | 66 | 157 | 2.0 | 10.0 | 0.00 | 0.00 | 0.00 | 58 | 1006.4 |
| 20260505063559 | 66 | 173 | 2.0 | 10.0 | 0.00 | 0.00 | 0.00 | 58 | 1006.4 |
| 20260505063500 | 66 | 211 | 3.0 | 10.0 | 0.00 | 0.00 | 0.00 | 58 | 1006.4 |
| 20260505063402 | 66 | 229 | 2.0 | 11.0 | 0.00 | 0.00 | 0.00 | 58 | 1006.5 |
| 20260505063259 | 66 | 198 | 4.0 | 11.0 | 0.00 | 0.00 | 0.00 | 58 | 1006.5 |
| 20260505063158 | 66 | 314 | 4.0 | 11.0 | 0.00 | 0.00 | 0.00 | 58 | 1006.3 |
| 20260505063000 | 66 | 214 | 2.0 | 11.0 | 0.00 | 0.00 | 0.00 | 58 | 1006.4 |
| 20260505062859 | 66 | 103 | 2.0 | 11.0 | 0.00 | 0.00 | 0.00 | 58 | 1006.4 |
| 20260505062800 | 66 | 313 | 2.0 | 11.0 | 0.00 | 0.00 | 0.00 | 58 | 1006.5 |
| 20260505062559 | 66 | 188 | 2.0 | 11.0 | 0.00 | 0.00 | 0.00 | 58 | 1006.5 |
| 20260505062500 | 66 | 143 | 4.0 | 12.0 | 0.00 | 0.00 | 0.00 | 58 | 1006.5 |
| 20260505062400 | 66 | 208 | 2.0 | 12.0 | 0.00 | 0.00 | 0.00 | 58 | 1006.5 |
| 20260505062159 | 66 | 144 | 6.0 | 12.0 | 0.00 | 0.00 | 0.00 | 58 | 1006.4 |
| 20260505062100 | 66 | 192 | 3.0 | 12.0 | 0.00 | 0.00 | 0.00 | 58 | 1006.5 |
| 20260505061859 | 66 | 74 | 3.0 | 12.0 | 0.00 | 0.00 | 0.00 | 58 | 1006.4 |
| 20260505061801 | 66 | 221 | 5.0 | 10.0 | 0.00 | 0.00 | 0.00 | 58 | 1006.5 |
| 20260505061700 | 66 | 105 | 2.0 | 10.0 | 0.00 | 0.00 | 0.00 | 58 | 1006.6 |
| 20260505061600 | 66 | 188 | 5.0 | 10.0 | 0.00 | 0.00 | 0.00 | 59 | 1006.4 |
| 20260505061459 | 66 | 122 | 5.0 | 10.0 | 0.00 | 0.00 | 0.00 | 58 | 1006.5 |
| 20260505061300 | 66 | 201 | 2.0 | 10.0 | 0.00 | 0.00 | 0.00 | 58 | 1006.5 |
| 20260505061200 | 66 | 190 | 4.0 | 10.0 | 0.00 | 0.00 | 0.00 | 58 | 1006.4 |
| 20260505060958 | 66 | 197 | 3.0 | 10.0 | 0.00 | 0.00 | 0.00 | 58 | 1006.3 |
| 20260505060900 | 66 | 186 | 8.0 | 9.0 | 0.00 | 0.00 | 0.00 | 58 | 1006.4 |
| 20260505060759 | 66 | 235 | 1.0 | 9.0 | 0.00 | 0.00 | 0.00 | 58 | 1006.3 |
| 20260505060700 | 66 | 191 | 3.0 | 9.0 | 0.00 | 0.00 | 0.00 | 58 | 1006.4 |
| 20260505060600 | 66 | 218 | 4.0 | 9.0 | 0.00 | 0.00 | 0.00 | 58 | 1006.3 |
| 20260505060459 | 66 | 187 | 3.0 | 9.0 | 0.00 | 0.00 | 0.00 | 58 | 1006.4 |
| 20260505060300 | 66 | 258 | 2.0 | 10.0 | 0.00 | 0.00 | 0.00 | 59 | 1006.3 |
| 20260505060159 | 66 | 186 | 1.0 | 10.0 | 0.00 | 0.00 | 0.00 | 58 | 1006.2 |
| 20260505060059 | 66 | 232 | 1.0 | 10.0 | 0.00 | 0.00 | 0.00 | 58 | 1006.2 |
| 20260505055958 | 66 | 138 | 1.0 | 10.0 | 0.00 | 0.00 | 0.00 | 58 | 1006.2 |
| 20260505055858 | 66 | 207 | 5.0 | 10.0 | 0.00 | 0.00 | 0.00 | 58 | 1006.2 |
| 20260505055757 | 66 | 37 | 1.0 | 10.0 | 0.00 | 0.00 | 0.00 | 59 | 1006.2 |
| 20260505055657 | 66 | 209 | 1.0 | 10.0 | 0.00 | 0.00 | 0.00 | 59 | 1006.2 |
| 20260505055557 | 66 | 138 | 3.0 | 10.0 | 0.00 | 0.00 | 0.00 | 58 | 1006.1 |
| 20260505055458 | 66 | 247 | 3.0 | 10.0 | 0.00 | 0.00 | 0.00 | 58 | 1006.0 |
| 20260505055359 | 66 | 252 | 0.0 | 10.0 | 0.00 | 0.00 | 0.00 | 59 | 1006.1 |
| 20260505055200 | 66 | 225 | 5.0 | 10.0 | 0.00 | 0.00 | 0.00 | 58 | 1006.1 |
| 20260505055058 | 66 | 189 | 2.0 | 11.0 | 0.00 | 0.00 | 0.00 | 58 | 1006.1 |
| 20260505054958 | 66 | 188 | 3.0 | 11.0 | 0.00 | 0.00 | 0.00 | 58 | 1006.0 |
| 20260505054659 | 66 | 292 | 0.0 | 11.0 | 0.00 | 0.00 | 0.00 | 58 | 1006.0 |
| 20260505054558 | 66 | 209 | 3.0 | 11.0 | 0.00 | 0.00 | 0.00 | 58 | 1006.0 |
| 20260505054457 | 66 | 101 | 3.0 | 11.0 | 0.00 | 0.00 | 0.00 | 59 | 1006.0 |
| 20260505054358 | 66 | 275 | 1.0 | 8.0 | 0.00 | 0.00 | 0.00 | 58 | 1006.0 |
| 20260505054259 | 66 | 248 | 3.0 | 8.0 | 0.00 | 0.00 | 0.00 | 58 | 1006.0 |
| 20260505054157 | 66 | 216 | 3.0 | 8.0 | 0.00 | 0.00 | 0.00 | 59 | 1006.0 |
| 20260505054058 | 66 | 224 | 2.0 | 8.0 | 0.00 | 0.00 | 0.00 | 58 | 1006.0 |
| 20260505053958 | 66 | 223 | 8.0 | 9.0 | 0.00 | 0.00 | 0.00 | 58 | 1006.0 |
| 20260505053857 | 66 | 157 | 0.0 | 9.0 | 0.00 | 0.00 | 0.00 | 58 | 1005.9 |
| 20260505053657 | 66 | 277 | 0.0 | 9.0 | 0.00 | 0.00 | 0.00 | 58 | 1006.0 |
| 20260505053557 | 66 | 190 | 2.0 | 10.0 | 0.00 | 0.00 | 0.00 | 58 | 1006.0 |
| 20260505053500 | 66 | 203 | 3.0 | 10.0 | 0.00 | 0.00 | 0.00 | 58 | 1006.0 |
| 20260505053357 | 66 | 179 | 3.0 | 10.0 | 0.00 | 0.00 | 0.00 | 58 | 1006.0 |
| 20260505053258 | 66 | 90 | 1.0 | 10.0 | 0.00 | 0.00 | 0.00 | 58 | 1006.0 |
| 20260505053158 | 66 | 163 | 0.0 | 10.0 | 0.00 | 0.00 | 0.00 | 58 | 1006.0 |
| 20260505053057 | 66 | 152 | 1.0 | 10.0 | 0.00 | 0.00 | 0.00 | 58 | 1005.9 |
| 20260505052958 | 66 | 213 | 4.0 | 10.0 | 0.00 | 0.00 | 0.00 | 58 | 1006.0 |
| 20260505052857 | 66 | 217 | 3.0 | 10.0 | 0.00 | 0.00 | 0.00 | 58 | 1006.0 |
| 20260505052758 | 66 | 137 | 3.0 | 12.0 | 0.00 | 0.00 | 0.00 | 58 | 1006.0 |
| 20260505052658 | 66 | 192 | 0.0 | 8.0 | 0.00 | 0.00 | 0.00 | 58 | 1005.9 |
| 20260505052559 | 66 | 265 | 3.0 | 8.0 | 0.00 | 0.00 | 0.00 | 59 | 1005.9 |
| 20260505052459 | 66 | 226 | 2.0 | 8.0 | 0.00 | 0.00 | 0.00 | 58 | 1006.0 |
| 20260505052358 | 66 | 254 | 1.0 | 8.0 | 0.00 | 0.00 | 0.00 | 58 | 1006.0 |
| 20260505052257 | 66 | 141 | 0.0 | 8.0 | 0.00 | 0.00 | 0.00 | 58 | 1006.0 |
| 20260505052159 | 67 | 175 | 2.0 | 9.0 | 0.00 | 0.00 | 0.00 | 58 | 1005.9 |
| 20260505051958 | 67 | 67 | 0.0 | 9.0 | 0.00 | 0.00 | 0.00 | 58 | 1006.0 |
| 20260505051758 | 67 | 159 | 0.0 | 9.0 | 0.00 | 0.00 | 0.00 | 58 | 1006.0 |
| 20260505051658 | 67 | 217 | 0.0 | 9.0 | 0.00 | 0.00 | 0.00 | 58 | 1006.0 |
| 20260505051557 | 67 | 192 | 3.0 | 9.0 | 0.00 | 0.00 | 0.00 | 58 | 1006.0 |
| 20260505051459 | 67 | 152 | 2.0 | 9.0 | 0.00 | 0.00 | 0.00 | 57 | 1006.0 |
| 20260505051359 | 67 | 236 | 2.0 | 10.0 | 0.00 | 0.00 | 0.00 | 57 | 1006.0 |
| 20260505051159 | 67 | 207 | 3.0 | 9.0 | 0.00 | 0.00 | 0.00 | 57 | 1006.0 |
| 20260505051059 | 67 | 121 | 3.0 | 9.0 | 0.00 | 0.00 | 0.00 | 58 | 1006.0 |
| 20260505050757 | 67 | 181 | 2.0 | 9.0 | 0.00 | 0.00 | 0.00 | 57 | 1006.1 |
| 20260505050701 | 67 | 300 | 8.0 | 9.0 | 0.00 | 0.00 | 0.00 | 57 | 1006.1 |
| 20260505050357 | 67 | 348 | 1.0 | 9.0 | 0.00 | 0.00 | 0.00 | 57 | 1006.1 |
| 20260505050258 | 67 | 221 | 4.0 | 9.0 | 0.00 | 0.00 | 0.00 | 57 | 1006.0 |
| 20260505050158 | 67 | 209 | 2.0 | 9.0 | 0.00 | 0.00 | 0.00 | 57 | 1006.1 |
| 20260505041702 | 67 | 167 | 5.0 | 11.0 | 0.00 | 0.00 | 0.00 | 58 | 1006.6 |
| 20260505041602 | 67 | 221 | 1.0 | 11.0 | 0.00 | 0.00 | 0.00 | 58 | 1006.6 |
| 20260505041501 | 67 | 346 | 0.0 | 11.0 | 0.00 | 0.00 | 0.00 | 58 | 1006.6 |
| 20260505041301 | 67 | 104 | 3.0 | 11.0 | 0.00 | 0.00 | 0.00 | 58 | 1006.6 |
| 20260505041203 | 67 | 202 | 2.0 | 11.0 | 0.00 | 0.00 | 0.00 | 58 | 1006.6 |
| 20260505041103 | 67 | 182 | 3.0 | 11.0 | 0.00 | 0.00 | 0.00 | 58 | 1006.6 |
| 20260505041002 | 67 | 220 | 0.0 | 8.0 | 0.00 | 0.00 | 0.00 | 58 | 1006.6 |
| 20260505040903 | 67 | 170 | 2.0 | 9.0 | 0.00 | 0.00 | 0.00 | 58 | 1006.6 |
| 20260505040802 | 67 | 158 | 1.0 | 9.0 | 0.00 | 0.00 | 0.00 | 58 | 1006.5 |
| 20260505040702 | 67 | 200 | 2.0 | 9.0 | 0.00 | 0.00 | 0.00 | 58 | 1006.6 |
| 20260505040303 | 68 | 299 | 5.0 | 9.0 | 0.00 | 0.00 | 0.00 | 58 | 1006.6 |
| 20260505040201 | 68 | 275 | 1.0 | 9.0 | 0.00 | 0.00 | 0.00 | 58 | 1006.6 |
| 20260505040001 | 67 | 198 | 0.0 | 10.0 | 0.00 | 0.00 | 0.00 | 58 | 1006.8 |
| 20260505035901 | 67 | 236 | 0.0 | 10.0 | 0.00 | 0.00 | 0.00 | 58 | 1006.7 |
| 20260505035800 | 67 | 205 | 3.0 | 10.0 | 0.00 | 0.00 | 0.00 | 58 | 1006.7 |
| 20260505035701 | 67 | 224 | 0.0 | 10.0 | 0.00 | 0.00 | 0.00 | 58 | 1006.7 |
| 20260505035602 | 68 | 193 | 4.0 | 10.0 | 0.00 | 0.00 | 0.00 | 58 | 1006.7 |
| 20260505035401 | 67 | 197 | 2.0 | 10.0 | 0.00 | 0.00 | 0.00 | 58 | 1006.8 |
| 20260505035301 | 67 | 169 | 1.0 | 10.0 | 0.00 | 0.00 | 0.00 | 58 | 1006.7 |
| 20260505035101 | 67 | 184 | 9.0 | 9.0 | 0.00 | 0.00 | 0.00 | 59 | 1006.8 |
| 20260505035001 | 67 | 189 | 1.0 | 8.0 | 0.00 | 0.00 | 0.00 | 58 | 1006.7 |
| 20260505034901 | 67 | 284 | 1.0 | 8.0 | 0.00 | 0.00 | 0.00 | 59 | 1006.7 |
| 20260505034701 | 67 | 190 | 0.0 | 8.0 | 0.00 | 0.00 | 0.00 | 59 | 1006.8 |
| 20260505034602 | 67 | 200 | 3.0 | 8.0 | 0.00 | 0.00 | 0.00 | 58 | 1006.7 |
| 20260505034500 | 67 | 230 | 1.0 | 8.0 | 0.00 | 0.00 | 0.00 | 58 | 1006.7 |
| 20260505034404 | 67 | 209 | 4.0 | 8.0 | 0.00 | 0.00 | 0.00 | 59 | 1006.6 |
| 20260505034300 | 67 | 276 | 1.0 | 8.0 | 0.00 | 0.00 | 0.00 | 59 | 1006.7 |
| 20260505034202 | 67 | 250 | 1.0 | 8.0 | 0.00 | 0.00 | 0.00 | 59 | 1006.6 |
| 20260505034101 | 67 | 311 | 3.0 | 8.0 | 0.00 | 0.00 | 0.00 | 58 | 1006.7 |
| 20260505034000 | 67 | 207 | 2.0 | 8.0 | 0.00 | 0.00 | 0.00 | 58 | 1006.7 |
| 20260505033800 | 67 | 220 | 2.0 | 6.0 | 0.00 | 0.00 | 0.00 | 59 | 1006.6 |
| 20260505033600 | 67 | 171 | 1.0 | 6.0 | 0.00 | 0.00 | 0.00 | 58 | 1006.6 |
| 20260505033500 | 67 | 223 | 1.0 | 6.0 | 0.00 | 0.00 | 0.00 | 59 | 1006.6 |
| 20260505033403 | 67 | 259 | 2.0 | 6.0 | 0.00 | 0.00 | 0.00 | 58 | 1006.6 |
| 20260505033301 | 67 | 215 | 2.0 | 6.0 | 0.00 | 0.00 | 0.00 | 58 | 1006.6 |
| 20260505033202 | 67 | 187 | 5.0 | 8.0 | 0.00 | 0.00 | 0.00 | 58 | 1006.7 |
| 20260505033103 | 67 | 162 | 0.0 | 8.0 | 0.00 | 0.00 | 0.00 | 59 | 1006.7 |
| 20260505033001 | 68 | 238 | 0.0 | 8.0 | 0.00 | 0.00 | 0.00 | 58 | 1006.7 |
| 20260505032900 | 68 | 217 | 3.0 | 8.0 | 0.00 | 0.00 | 0.00 | 58 | 1006.7 |
| 20260505032800 | 68 | 209 | 2.0 | 8.0 | 0.00 | 0.00 | 0.00 | 58 | 1006.7 |
| 20260505032700 | 68 | 213 | 2.0 | 8.0 | 0.00 | 0.00 | 0.00 | 58 | 1006.6 |
| 20260505032602 | 68 | 234 | 4.0 | 8.0 | 0.00 | 0.00 | 0.00 | 58 | 1006.6 |
| 20260505032500 | 68 | 221 | 2.0 | 8.0 | 0.00 | 0.00 | 0.00 | 58 | 1006.6 |
| 20260505032401 | 68 | 182 | 1.0 | 8.0 | 0.00 | 0.00 | 0.00 | 58 | 1006.6 |
| 20260505032304 | 68 | 207 | 2.0 | 6.0 | 0.00 | 0.00 | 0.00 | 58 | 1006.7 |
| 20260505032201 | 68 | 219 | 4.0 | 6.0 | 0.00 | 0.00 | 0.00 | 58 | 1006.7 |
| 20260505032101 | 68 | 317 | 0.0 | 6.0 | 0.00 | 0.00 | 0.00 | 58 | 1006.6 |
| 20260505032000 | 68 | 326 | 2.0 | 6.0 | 0.00 | 0.00 | 0.00 | 59 | 1006.7 |
| 20260505031901 | 68 | 325 | 0.0 | 6.0 | 0.00 | 0.00 | 0.00 | 58 | 1006.7 |
| 20260505031801 | 68 | 198 | 0.0 | 6.0 | 0.00 | 0.00 | 0.00 | 58 | 1006.7 |
| 20260505031701 | 68 | 269 | 0.0 | 6.0 | 0.00 | 0.00 | 0.00 | 58 | 1006.6 |
| 20260505031601 | 68 | 186 | 0.0 | 6.0 | 0.00 | 0.00 | 0.00 | 58 | 1006.7 |
| 20260505031501 | 68 | 188 | 1.0 | 6.0 | 0.00 | 0.00 | 0.00 | 58 | 1006.7 |
| 20260505031402 | 68 | 204 | 3.0 | 6.0 | 0.00 | 0.00 | 0.00 | 58 | 1006.6 |
| 20260505031300 | 68 | 322 | 2.0 | 6.0 | 0.00 | 0.00 | 0.00 | 58 | 1006.6 |
| 20260505031201 | 68 | 244 | 0.0 | 6.0 | 0.00 | 0.00 | 0.00 | 58 | 1006.6 |
| 20260505031101 | 68 | 225 | 3.0 | 6.0 | 0.00 | 0.00 | 0.00 | 58 | 1006.7 |
| 20260505031000 | 68 | 212 | 1.0 | 6.0 | 0.00 | 0.00 | 0.00 | 59 | 1006.7 |
| 20260505030900 | 68 | 234 | 0.0 | 8.0 | 0.00 | 0.00 | 0.00 | 58 | 1006.6 |
| 20260505030802 | 68 | 217 | 2.0 | 8.0 | 0.00 | 0.00 | 0.00 | 59 | 1006.6 |
| 20260505030700 | 68 | 211 | 3.0 | 8.0 | 0.00 | 0.00 | 0.00 | 58 | 1006.6 |
| 20260505030601 | 68 | 5 | 1.0 | 8.0 | 0.00 | 0.00 | 0.00 | 59 | 1006.6 |
| 20260505030501 | 68 | 235 | 1.0 | 8.0 | 0.00 | 0.00 | 0.00 | 58 | 1006.6 |
| 20260505030401 | 68 | 248 | 2.0 | 8.0 | 0.00 | 0.00 | 0.00 | 58 | 1006.6 |